                ,  0.485,  0.585,  0.685,  0.785,  0.885,  0.985,  1.085,  1.185,  1.285,  1.385,  1.485,  1.585,  1.685,  1.785,  1.885,  1.985,  2.085,  2.185,  2.285,  2.385,  2.485,  2.585,  2.685,  2.785,  2.885,  2.985,  3.085,  3.185,  3.285,  3.385,  3.485,  3.585,  3.685,  3.785,  3.885,  3.985,  4.085,  4.185,  4.285,  4.385,  4.485,  4.585,  4.685,  4.785,  4.885,  4.985,  5.085,  5.185,  5.285,  5.385,  5.485,  5.585,  5.685,  5.785,  5.885,  5.985,  6.085,  6.185,  6.285,  6.385,  6.485,  6.585,  6.685,  6.785,  6.885,  6.985,  7.085,  7.185,  7.285,  7.385,  7.485,  7.585,  7.685,  7.785,  7.885,  7.985,  8.085,  8.185,  8.285,  8.385
2014/09/19 00:00,  999.0,  999.0,  999.0,    0.3,  999.0,    0.5,    0.1,  999.0,  999.0,  999.0,  999.0,  999.0,  999.0,    0.3,  999.0,   -0.1,   -0.0,   -0.0,   -0.1,  999.0,    1.2,    0.8,  999.0,  999.0,  999.0,  999.0,  999.0,  999.0,  999.0,  999.0,  999.0,  999.0,  999.0,  999.0,  999.0,  999.0,  999.0,  999.0,  999.0,  999.0,  999.0,  999.0,  999.0,  999.0,  999.0,  999.0,  999.0,  999.0,  999.0,  999.0,  999.0,  999.0,  999.0,  999.0,  999.0,  999.0,  999.0,  999.0,  999.0,  999.0,  999.0,  999.0,  999.0,  999.0,  999.0,  999.0,  999.0,  999.0,  999.0,  999.0,  999.0,  999.0,  999.0,  999.0,  999.0,  999.0,  999.0,  999.0,  999.0,  999.0
2014/09/19 00:10,  999.0,    1.8,    2.0,  999.0,  999.0,    1.1,    0.2,    0.4,    0.2,    0.4,    0.7,    1.0,    0.6,    0.3,    0.4,    0.3,    0.3,    0.2,   -0.2,   -0.4,  999.0,    0.1,  999.0,   -0.3,  999.0,  999.0,  999.0,    0.6,  999.0,  999.0,  999.0,  999.0,  999.0,  999.0,  999.0,  999.0,  999.0,  999.0,  999.0,  999.0,  999.0,  999.0,  999.0,  999.0,  999.0,  999.0,  999.0,  999.0,  999.0,  999.0,  999.0,  999.0,  999.0,  999.0,  999.0,  999.0,  999.0,  999.0,  999.0,  999.0,  999.0,   -0.9,  999.0,   -1.2,   -1.3,  999.0,  999.0,   -1.1,  999.0,  999.0,  999.0,  999.0,  999.0,  999.0,  999.0,  999.0,  999.0,  999.0,  999.0,  999.0
2014/09/19 00:20,    0.7,   -0.0,    0.9,    0.6,    0.3,    0.1,    0.0,  999.0,  999.0,    0.2,    0.1,  999.0,  999.0,  999.0,    0.3,    0.1,    0.1,   -0.3,   -0.2,  999.0,  999.0,  999.0,    0.4,    0.6,  999.0,    0.3,  999.0,  999.0,  999.0,  999.0,  999.0,  999.0,  999.0,  999.0,  999.0,  999.0,  999.0,  999.0,  999.0,  999.0,  999.0,  999.0,  999.0,  999.0,  999.0,  999.0,  999.0,  999.0,  999.0,  999.0,  999.0,  999.0,  999.0,  999.0,  999.0,  999.0,  999.0,  999.0,  999.0,   -0.8,   -0.9,   -0.9,   -1.1,   -1.1,   -1.2,   -1.0,  999.0,  999.0,   -0.6,  999.0,  999.0,  999.0,  999.0,  999.0,  999.0,  999.0,  999.0,  999.0,  999.0,  999.0
2014/09/19 00:30,  999.0,    0.8,  999.0,    0.1,    0.1,    0.2,   -0.0,    0.3,    0.1,    0.2,   -0.2,    0.2,    0.1,   -0.1,   -0.2,   -0.2,   -0.2,   -0.3,   -0.3,  999.0,  999.0,    0.4,  999.0,  999.0,  999.0,   -0.2,  999.0,  999.0,  999.0,  999.0,  999.0,  999.0,  999.0,  999.0,  999.0,  999.0,  999.0,  999.0,  999.0,  999.0,  999.0,  999.0,  999.0,  999.0,  999.0,  999.0,  999.0,  999.0,  999.0,  999.0,  999.0,  999.0,  999.0,  999.0,  999.0,  999.0,  999.0,  999.0,   -0.3,  999.0,   -0.6,   -0.8,   -0.8,   -0.7,   -0.9,  999.0,  999.0,  999.0,  999.0,  999.0,  999.0,  999.0,  999.0,  999.0,  999.0,  999.0,  999.0,  999.0,  999.0,  999.0
2014/09/19 00:40,  999.0,    0.8,    0.8,    0.3,   -0.1,  999.0,    0.1,    0.1,    0.3,    0.2,    0.2,    0.3,    0.3,    0.3,    0.3,    0.2,    0.1,   -0.1,   -0.1,   -0.1,  999.0,    0.5,  999.0,    0.5,  999.0,  999.0,  999.0,  999.0,  999.0,  999.0,  999.0,  999.0,  999.0,  999.0,  999.0,  999.0,  999.0,  999.0,  999.0,  999.0,  999.0,  999.0,  999.0,  999.0,  999.0,  999.0,  999.0,  999.0,  999.0,  999.0,  999.0,  999.0,  999.0,  999.0,  999.0,  999.0,  999.0,  999.0,  999.0,  999.0,  999.0,  999.0,  999.0,  999.0,  999.0,  999.0,  999.0,  999.0,  999.0,  999.0,  999.0,  999.0,  999.0,  999.0,  999.0,  999.0,  999.0,  999.0,  999.0,  999.0
2014/09/19 00:50,  999.0,   -0.1,   -0.4,   -0.2,   -0.0,  999.0,  999.0,    0.2,    0.1,   -0.2,    0.3,    0.0,    0.2,    0.0,    0.2,    0.0,  999.0,    0.1,    0.1,   -0.3,   -0.5,    0.4,    0.3,  999.0,  999.0,  999.0,  999.0,  999.0,  999.0,  999.0,  999.0,  999.0,  999.0,  999.0,  999.0,  999.0,  999.0,  999.0,  999.0,  999.0,  999.0,  999.0,  999.0,  999.0,  999.0,  999.0,  999.0,  999.0,  999.0,  999.0,  999.0,  999.0,  999.0,  999.0,  999.0,  999.0,  999.0,  999.0,  999.0,  999.0,  999.0,  999.0,  999.0,  999.0,  999.0,  999.0,  999.0,  999.0,  999.0,  999.0,  999.0,  999.0,  999.0,  999.0,  999.0,  999.0,  999.0,  999.0,  999.0,  999.0
2014/09/19 01:00,    0.8,   -0.2,    0.1,   -0.6,    0.2,    0.1,    0.3,    0.3,    0.1,  999.0,  999.0,    0.3,    0.4,   -0.0,   -0.0,   -0.0,   -0.0,   -0.1,    0.2,    0.1,    0.0,  999.0,  999.0,   -0.4,   -0.5,   -1.2,  999.0,  999.0,  999.0,  999.0,  999.0,  999.0,  999.0,  999.0,  999.0,  999.0,  999.0,  999.0,  999.0,  999.0,  999.0,  999.0,  999.0,  999.0,  999.0,  999.0,  999.0,  999.0,  999.0,  999.0,  999.0,    0.1,   -0.1,  999.0,  999.0,  999.0,  999.0,   -1.0,   -1.0,   -0.9,   -1.0,   -0.9,   -0.8,   -0.9,   -0.9,   -0.9,   -0.9,   -0.9,   -0.9,   -0.9,   -0.8,   -0.8,   -0.7,   -0.8,   -1.1,  999.0,  999.0,  999.0,  999.0,  999.0
2014/09/19 01:10,  999.0,  999.0,   -0.3,  999.0,   -0.4,  999.0,   -0.1,  999.0,  999.0,  999.0,  999.0,    0.3,    0.0,   -0.4,   -0.2,   -0.0,    0.0,    0.1,    0.2,    0.1,    0.4,    0.4,    0.3,    0.2,  999.0,  999.0,  999.0,   -0.3,  999.0,  999.0,  999.0,  999.0,  999.0,  999.0,  999.0,  999.0,  999.0,  999.0,  999.0,  999.0,  999.0,  999.0,  999.0,  999.0,  999.0,  999.0,  999.0,  999.0,  999.0,  999.0,  999.0,  999.0,  999.0,  999.0,  999.0,  999.0,  999.0,  999.0,   -1.1,   -0.9,   -0.9,   -0.8,   -0.7,   -0.8,   -0.9,   -0.8,   -0.9,   -0.8,   -0.9,   -1.0,   -0.6,  999.0,  999.0,  999.0,  999.0,  999.0,  999.0,  999.0,  999.0,  999.0
2014/09/19 01:20,  999.0,   -0.2,    0.1,   -0.3,   -0.3,    0.4,   -0.2,   -0.1,   -0.0,    0.2,  999.0,  999.0,   -0.0,   -0.4,   -0.4,   -0.3,   -0.2,    0.0,   -0.1,    0.2,   -0.2,   -0.0,    0.3,   -0.3,   -0.1,    0.4,   -0.1,   -0.0,    0.0,    0.0,  999.0,  999.0,  999.0,  999.0,  999.0,  999.0,  999.0,  999.0,  999.0,  999.0,  999.0,  999.0,  999.0,  999.0,  999.0,  999.0,  999.0,  999.0,  999.0,  999.0,  999.0,  999.0,  999.0,  999.0,  999.0,  999.0,  999.0,  999.0,  999.0,   -0.7,   -0.5,   -0.7,   -0.7,   -0.8,   -0.8,   -0.6,  999.0,   -0.8,   -0.8,  999.0,  999.0,  999.0,  999.0,  999.0,  999.0,  999.0,  999.0,  999.0,  999.0,  999.0
2014/09/19 01:30,    0.7,    0.4,  999.0,    0.2,  999.0,    0.2,   -0.0,   -0.0,   -0.1,    0.0,   -0.1,   -0.3,   -0.3,   -0.3,   -0.1,   -0.4,   -0.1,   -0.1,   -0.0,    0.1,    0.1,   -0.4,    0.8,  999.0,  999.0,  999.0,   -0.0,   -0.1,  999.0,  999.0,  999.0,    0.0,  999.0,  999.0,  999.0,  999.0,  999.0,  999.0,  999.0,  999.0,  999.0,  999.0,  999.0,  999.0,  999.0,  999.0,  999.0,  999.0,  999.0,  999.0,  999.0,  999.0,  999.0,  999.0,  999.0,  999.0,  999.0,  999.0,   -1.4,   -1.3,   -1.1,   -1.2,   -1.2,   -1.2,   -1.1,   -1.2,   -1.1,   -1.2,   -1.4,   -1.2,   -1.1,  999.0,   -1.0,  999.0,  999.0,  999.0,  999.0,  999.0,  999.0,  999.0
2014/09/19 01:40,  999.0,   -0.1,  999.0,    0.3,    0.2,    0.3,   -0.1,    0.4,   -0.2,   -0.1,   -0.3,    0.1,    0.0,   -0.1,   -0.3,    0.3,   -0.1,   -0.2,   -0.2,   -0.1,   -0.2,   -0.4,  999.0,  999.0,  999.0,  999.0,  999.0,  999.0,  999.0,  999.0,  999.0,  999.0,  999.0,  999.0,  999.0,  999.0,  999.0,  999.0,  999.0,  999.0,  999.0,  999.0,  999.0,  999.0,  999.0,  999.0,  999.0,  999.0,  999.0,  999.0,  999.0,  999.0,  999.0,  999.0,  999.0,  999.0,  999.0,  999.0,  999.0,   -1.1,   -1.1,   -1.0,   -1.2,   -1.4,   -1.5,   -1.5,   -1.3,   -1.3,   -1.1,  999.0,  999.0,  999.0,  999.0,  999.0,  999.0,  999.0,  999.0,  999.0,  999.0,  999.0
2014/09/19 01:50,  999.0,    0.6,    0.1,    0.6,    0.1,    0.4,    0.4,    0.4,  999.0,    0.4,    0.1,    0.1,    0.0,    0.0,    0.2,   -0.2,   -0.1,   -0.1,   -0.2,    0.2,   -0.5,   -0.1,   -0.1,  999.0,  999.0,  999.0,  999.0,  999.0,  999.0,  999.0,  999.0,  999.0,  999.0,  999.0,  999.0,  999.0,  999.0,  999.0,  999.0,  999.0,  999.0,  999.0,  999.0,  999.0,  999.0,  999.0,  999.0,  999.0,  999.0,  999.0,  999.0,  999.0,  999.0,  999.0,  999.0,  999.0,  999.0,  999.0,  999.0,  999.0,   -1.1,   -1.3,   -1.2,   -1.3,   -1.4,   -1.2,   -1.3,   -1.2,   -1.4,   -1.3,   -1.4,   -1.4,   -1.3,   -1.2,   -0.8,   -1.0,  999.0,  999.0,  999.0,  999.0
2014/09/19 02:00,  999.0,    0.1,  999.0,    0.3,    0.5,    0.3,  999.0,    0.5,  999.0,    0.3,    0.2,    0.1,    0.2,    0.3,   -0.0,    0.2,   -0.1,   -0.1,   -0.1,   -0.0,   -0.1,   -0.1,   -0.1,   -0.2,  999.0,   -0.0,  999.0,    0.0,  999.0,  999.0,  999.0,  999.0,  999.0,  999.0,  999.0,  999.0,  999.0,  999.0,  999.0,  999.0,  999.0,  999.0,  999.0,  999.0,  999.0,  999.0,  999.0,  999.0,  999.0,  999.0,  999.0,  999.0,  999.0,  999.0,  999.0,  999.0,  999.0,  999.0,  999.0,  999.0,   -1.2,   -1.3,   -1.1,   -1.3,   -1.4,   -1.3,   -1.4,   -1.4,   -1.4,   -1.2,   -1.3,   -1.2,   -1.3,   -1.2,   -1.2,  999.0,  999.0,  999.0,  999.0,  999.0
2014/09/19 02:10,  999.0,    0.1,    0.3,    0.1,    0.0,    0.1,    0.2,  999.0,    0.2,    0.3,    0.3,    0.0,    0.4,    0.0,    0.3,   -0.1,   -0.1,   -0.2,   -0.2,   -0.2,   -0.1,   -0.3,   -0.4,  999.0,  999.0,    0.0,   -0.1,   -0.0,    0.0,   -0.0,    0.0,  999.0,  999.0,  999.0,  999.0,  999.0,  999.0,  999.0,  999.0,  999.0,  999.0,  999.0,  999.0,  999.0,  999.0,  999.0,  999.0,  999.0,  999.0,  999.0,  999.0,  999.0,  999.0,  999.0,  999.0,  999.0,  999.0,  999.0,  999.0,  999.0,  999.0,   -1.0,   -1.1,   -1.1,   -1.0,   -1.0,   -1.0,   -1.1,   -0.9,   -1.0,   -1.1,   -1.1,   -0.9,   -1.3,   -1.1,   -0.9,   -1.1,  999.0,  999.0,  999.0
2014/09/19 02:20,  999.0,    0.2,    0.4,    0.3,    0.5,    0.5,  999.0,    0.1,  999.0,  999.0,  999.0,   -0.1,    0.2,    0.4,    0.0,  999.0,   -0.1,   -0.1,   -0.3,   -0.4,   -0.1,   -0.2,   -0.3,   -0.2,  999.0,   -0.1,    0.0,   -0.0,   -0.2,   -0.1,  999.0,   -0.0,  999.0,  999.0,  999.0,  999.0,  999.0,  999.0,  999.0,  999.0,  999.0,  999.0,  999.0,  999.0,  999.0,  999.0,  999.0,  999.0,  999.0,  999.0,  999.0,  999.0,  999.0,  999.0,  999.0,    0.3,  999.0,  999.0,  999.0,  999.0,  999.0,   -1.1,   -1.1,   -1.0,   -1.1,   -1.1,   -1.1,   -1.1,   -1.0,   -1.1,   -1.0,   -1.1,   -1.1,   -1.0,   -0.9,   -0.8,   -0.8,   -0.7,  999.0,  999.0
2014/09/19 02:30,    0.0,    0.1,    0.2,    0.3,    0.3,  999.0,  999.0,    0.1,    0.2,    0.3,    0.5,    0.5,    0.1,    0.3,    0.4,   -0.1,    0.2,    0.2,    0.1,   -0.1,   -0.1,   -0.1,   -0.2,  999.0,   -0.0,  999.0,  999.0,  999.0,    0.0,    0.0,  999.0,   -0.0,  999.0,  999.0,  999.0,  999.0,  999.0,  999.0,  999.0,  999.0,  999.0,  999.0,  999.0,  999.0,  999.0,  999.0,  999.0,  999.0,  999.0,  999.0,  999.0,  999.0,  999.0,    0.5,    0.5,  999.0,  999.0,  999.0,  999.0,  999.0,   -1.1,   -0.9,   -0.8,   -0.8,   -0.7,   -0.7,   -0.7,   -0.6,   -0.7,   -0.6,   -0.6,   -0.6,   -0.6,   -0.6,   -0.7,   -0.7,   -0.7,   -0.4,  999.0,  999.0
2014/09/19 02:40,    0.1,    0.1,    0.2,    0.3,    0.2,    0.3,    0.2,  999.0,    0.2,    0.2,    0.4,    0.2,    0.2,   -0.0,    0.2,    0.0,    0.1,   -0.1,   -0.0,   -0.0,    0.0,   -0.0,    0.0,    0.0,    0.0,   -0.0,    0.2,   -0.0,   -0.0,    0.0,  999.0,    0.0,   -0.0,  999.0,  999.0,  999.0,  999.0,  999.0,  999.0,  999.0,  999.0,  999.0,  999.0,  999.0,  999.0,  999.0,  999.0,  999.0,  999.0,  999.0,  999.0,  999.0,  999.0,  999.0,  999.0,  999.0,  999.0,  999.0,  999.0,  999.0,  999.0,   -1.0,   -1.1,   -1.1,   -1.0,   -1.0,   -1.1,   -1.1,   -1.0,   -1.0,   -1.1,   -1.1,   -1.1,   -0.9,   -1.1,   -0.9,   -0.7,  999.0,  999.0,  999.0
2014/09/19 02:50,    0.2,    0.0,   -0.0,    0.2,    0.2,  999.0,   -0.0,    0.4,  999.0,   -0.1,    0.1,    0.5,    0.6,    0.2,   -0.2,   -0.0,    0.0,    0.1,   -0.0,   -0.1,   -0.1,   -0.1,   -0.1,   -0.0,    0.1,   -0.0,   -0.0,    0.0,    0.0,    0.0,   -0.0,   -0.1,    0.0,  999.0,  999.0,  999.0,  999.0,  999.0,  999.0,  999.0,  999.0,  999.0,  999.0,  999.0,  999.0,  999.0,  999.0,  999.0,  999.0,  999.0,  999.0,  999.0,  999.0,   -0.0,   -0.1,   -0.1,  999.0,  999.0,  999.0,  999.0,   -1.1,   -1.2,   -1.2,   -1.2,   -1.1,   -1.1,   -1.0,   -1.3,   -1.0,   -1.1,   -1.1,   -1.2,   -1.1,   -1.1,   -0.8,   -0.9,   -1.1,  999.0,  999.0,  999.0
2014/09/19 03:00,    0.2,    0.0,    0.1,   -0.1,   -0.2,   -0.3,   -0.2,    0.0,  999.0,    0.1,   -0.3,    0.0,   -0.0,   -0.2,    0.0,   -0.0,   -0.1,   -0.2,   -0.2,   -0.3,   -0.1,   -0.1,   -0.1,   -0.3,   -0.1,  999.0,   -0.1,    0.0,    0.0,    0.1,   -0.0,    0.0,  999.0,  999.0,  999.0,  999.0,  999.0,  999.0,  999.0,  999.0,  999.0,  999.0,  999.0,  999.0,  999.0,  999.0,  999.0,  999.0,  999.0,  999.0,  999.0,  999.0,  999.0,  999.0,  999.0,  999.0,  999.0,  999.0,  999.0,   -1.7,   -1.6,   -1.5,   -1.6,   -1.4,   -1.3,   -1.4,   -1.4,   -1.1,   -1.1,   -1.2,   -1.0,   -1.1,   -1.0,   -1.1,   -0.9,   -0.9,   -0.7,  999.0,  999.0,  999.0
2014/09/19 03:10,    0.0,    0.0,   -0.0,  999.0,   -0.2,   -0.2,  999.0,   -0.1,  999.0,    0.3,   -0.3,   -0.1,    0.1,   -0.1,    0.1,   -0.1,   -0.1,   -0.1,   -0.3,   -0.1,   -0.2,   -0.1,   -0.1,   -0.1,    0.1,    0.1,  999.0,   -0.0,   -0.0,   -0.0,    0.0,    0.1,  999.0,  999.0,  999.0,  999.0,  999.0,  999.0,  999.0,  999.0,  999.0,  999.0,  999.0,  999.0,  999.0,  999.0,  999.0,  999.0,  999.0,  999.0,  999.0,  999.0,  999.0,  999.0,  999.0,  999.0,  999.0,  999.0,  999.0,   -1.6,   -1.5,   -1.5,   -1.4,   -1.3,   -1.3,   -1.3,   -1.3,   -1.2,   -1.2,   -1.2,   -1.2,   -1.1,   -1.2,   -1.0,   -1.1,   -1.2,   -1.0,   -1.1,  999.0,   -0.9
2014/09/19 03:20,    0.0,    0.0,    0.0,    0.0,  999.0,   -0.2,    0.1,   -0.1,    0.2,   -0.1,   -0.4,   -0.1,   -0.1,    0.0,    0.1,   -0.1,   -0.3,  999.0,    0.0,   -0.2,    0.0,   -0.0,   -0.0,    0.1,    0.0,  999.0,    0.0,  999.0,   -0.1,    0.0,   -0.0,    0.0,  999.0,  999.0,  999.0,  999.0,  999.0,  999.0,  999.0,  999.0,  999.0,  999.0,  999.0,  999.0,  999.0,  999.0,  999.0,  999.0,  999.0,    0.3,    0.1,  999.0,  999.0,  999.0,  999.0,  999.0,  999.0,  999.0,  999.0,   -1.6,   -1.3,   -1.3,   -1.4,   -1.3,   -1.2,   -1.2,   -1.4,   -1.2,   -1.4,   -1.3,   -1.3,   -1.2,  999.0,  999.0,  999.0,  999.0,  999.0,  999.0,  999.0,  999.0
2014/09/19 03:30,    0.1,    0.1,    0.0,    0.1,    0.1,    0.3,    0.1,    0.2,    0.2,    0.2,   -0.2,   -0.0,    0.0,   -0.1,   -0.2,   -0.1,   -0.4,   -0.2,  999.0,   -0.1,   -0.0,   -0.1,   -0.0,   -0.2,   -0.2,    0.0,   -0.1,    0.0,    0.0,    0.1,  999.0,   -0.0,   -0.0,  999.0,  999.0,  999.0,  999.0,  999.0,  999.0,  999.0,  999.0,  999.0,  999.0,  999.0,  999.0,  999.0,  999.0,  999.0,  999.0,  999.0,  999.0,  999.0,  999.0,  999.0,  999.0,  999.0,  999.0,  999.0,  999.0,  999.0,   -1.0,   -1.1,   -1.1,   -1.0,   -0.9,   -0.7,  999.0,  999.0,  999.0,  999.0,  999.0,  999.0,  999.0,  999.0,  999.0,  999.0,  999.0,  999.0,  999.0,  999.0
2014/09/19 03:40,    0.0,    0.1,   -0.0,    0.0,    0.3,   -0.2,   -0.2,   -0.3,   -0.2,   -0.3,   -0.3,   -0.4,   -0.4,   -0.4,   -0.4,   -0.4,   -0.5,  999.0,   -0.3,   -0.3,   -0.2,   -0.1,   -0.2,   -0.4,   -0.3,   -0.1,    0.0,    0.0,  999.0,   -0.1,   -0.1,  999.0,  999.0,  999.0,  999.0,  999.0,  999.0,  999.0,  999.0,  999.0,  999.0,  999.0,  999.0,  999.0,  999.0,  999.0,  999.0,  999.0,  999.0,  999.0,  999.0,  999.0,  999.0,  999.0,  999.0,  999.0,  999.0,  999.0,  999.0,  999.0,   -1.0,   -1.3,   -1.1,   -1.2,   -1.1,   -1.0,   -1.1,   -1.0,   -1.2,  999.0,   -1.0,  999.0,  999.0,  999.0,  999.0,  999.0,  999.0,  999.0,  999.0,  999.0
2014/09/19 03:50,   -0.1,   -0.0,   -0.1,   -0.2,   -0.3,   -0.4,   -0.2,   -0.0,   -0.5,   -0.4,   -0.3,   -0.3,   -0.3,   -0.4,   -0.4,   -0.4,   -0.5,   -0.4,   -0.3,   -0.2,   -0.0,   -0.2,   -0.3,   -0.5,   -0.4,   -0.1,   -0.1,    0.0,    0.0,   -0.0,   -0.0,  999.0,  999.0,  999.0,  999.0,  999.0,  999.0,  999.0,  999.0,  999.0,  999.0,  999.0,  999.0,  999.0,  999.0,  999.0,  999.0,  999.0,  999.0,  999.0,  999.0,  999.0,  999.0,  999.0,  999.0,  999.0,  999.0,  999.0,  999.0,  999.0,   -1.3,   -1.0,   -1.1,   -1.1,   -1.1,   -1.0,   -0.9,   -1.0,   -0.9,  999.0,  999.0,   -0.9,  999.0,  999.0,   -1.2,  999.0,   -0.9,  999.0,   -1.0,   -0.9
2014/09/19 04:00,    0.2,    0.0,   -0.1,   -0.2,   -0.1,   -0.1,   -0.1,   -0.3,   -0.2,   -0.1,   -0.1,   -0.3,   -0.2,   -0.1,   -0.2,   -0.3,   -0.1,   -0.0,   -0.1,    0.0,   -0.1,   -0.0,   -0.1,   -0.2,   -0.2,   -0.0,  999.0,    0.0,  999.0,   -0.1,  999.0,   -0.1,  999.0,  999.0,  999.0,  999.0,  999.0,  999.0,  999.0,  999.0,  999.0,  999.0,  999.0,  999.0,  999.0,  999.0,  999.0,  999.0,  999.0,  999.0,  999.0,    0.2,    0.2,  999.0,    0.2,  999.0,  999.0,  999.0,   -1.2,   -1.4,   -1.1,   -1.0,   -0.9,   -1.0,   -1.1,   -1.0,   -1.0,   -0.9,   -0.7,   -0.8,   -0.8,   -0.8,   -1.0,   -0.8,  999.0,   -0.6,   -0.7,  999.0,  999.0,  999.0
2014/09/19 04:10,    0.2,    0.1,   -0.1,   -0.1,   -0.0,   -0.0,   -0.0,    0.0,    0.1,    0.1,    0.1,    0.2,    0.1,    0.1,    0.1,    0.2,    0.5,  999.0,   -0.1,   -0.0,    0.1,    0.3,    0.2,  999.0,    0.1,    0.0,  999.0,  999.0,    0.0,   -0.0,   -0.1,  999.0,  999.0,  999.0,  999.0,  999.0,  999.0,  999.0,  999.0,  999.0,  999.0,  999.0,  999.0,  999.0,  999.0,  999.0,  999.0,  999.0,  999.0,  999.0,  999.0,  999.0,  999.0,  999.0,  999.0,  999.0,  999.0,  999.0,   -1.4,   -1.2,   -1.0,   -1.1,   -1.0,   -0.9,   -0.7,   -0.7,   -0.7,   -0.0,   -0.3,  999.0,   -0.9,  999.0,  999.0,  999.0,  999.0,  999.0,  999.0,  999.0,  999.0,  999.0
2014/09/19 04:20,    0.0,   -0.1,   -0.2,   -0.2,   -0.4,   -0.4,   -0.4,   -0.3,   -0.1,   -0.5,   -0.5,   -0.3,   -0.3,   -0.3,   -0.4,   -0.2,   -0.3,   -0.2,  999.0,  999.0,   -0.2,   -0.1,  999.0,   -0.0,   -0.1,    0.1,    0.0,    0.0,  999.0,   -0.0,   -0.0,  999.0,  999.0,  999.0,  999.0,  999.0,  999.0,  999.0,  999.0,  999.0,  999.0,  999.0,  999.0,  999.0,  999.0,  999.0,  999.0,  999.0,  999.0,  999.0,  999.0,  999.0,  999.0,  999.0,  999.0,  999.0,  999.0,  999.0,  999.0,   -1.0,   -1.1,   -1.2,   -1.0,   -1.1,   -1.0,   -0.9,   -0.9,   -0.7,   -1.1,   -0.8,   -0.8,   -0.7,   -0.8,   -0.8,  999.0,   -0.9,   -0.7,  999.0,  999.0,  999.0
2014/09/19 04:30,  999.0,    0.0,   -0.0,   -0.2,   -0.2,   -0.3,   -0.6,   -0.5,   -0.5,   -0.5,   -0.8,   -0.9,   -0.9,   -0.8,   -1.0,   -1.2,   -1.2,  999.0,  999.0,    0.0,   -0.3,   -0.1,  999.0,    0.0,   -0.0,   -0.0,    0.1,    0.0,    0.0,  999.0,    0.0,   -0.1,  999.0,  999.0,  999.0,  999.0,  999.0,  999.0,  999.0,  999.0,  999.0,  999.0,  999.0,  999.0,  999.0,  999.0,  999.0,  999.0,  999.0,  999.0,  999.0,  999.0,  999.0,  999.0,  999.0,  999.0,  999.0,  999.0,  999.0,  999.0,   -1.0,   -1.2,   -1.2,   -1.1,   -1.2,   -1.2,   -1.1,   -1.2,   -1.1,   -1.0,   -1.1,   -0.9,   -0.9,  999.0,  999.0,  999.0,  999.0,  999.0,  999.0,  999.0
2014/09/19 04:40,  999.0,   -0.0,    0.2,   -0.1,   -0.1,   -0.2,   -0.3,   -0.5,   -0.5,   -0.5,   -0.4,   -0.5,   -0.5,   -0.4,   -0.4,   -0.5,   -0.4,   -0.7,   -0.1,   -0.1,   -0.1,   -0.1,   -0.2,   -0.2,   -0.0,  999.0,  999.0,   -0.0,    0.1,   -0.1,    0.0,  999.0,  999.0,  999.0,  999.0,  999.0,  999.0,  999.0,  999.0,  999.0,  999.0,  999.0,  999.0,  999.0,  999.0,  999.0,  999.0,  999.0,  999.0,  999.0,  999.0,  999.0,  999.0,  999.0,  999.0,  999.0,  999.0,  999.0,  999.0,  999.0,   -1.1,   -1.1,   -1.1,   -1.1,   -1.1,   -1.1,   -1.1,   -1.1,   -0.9,   -0.9,  999.0,   -1.0,  999.0,  999.0,  999.0,  999.0,  999.0,  999.0,  999.0,  999.0
2014/09/19 04:50,    0.3,    0.1,    0.0,    0.3,    0.1,   -0.3,  999.0,   -0.2,   -0.2,   -0.2,   -0.2,   -0.1,    0.0,   -0.1,    0.1,   -0.1,   -0.2,   -0.2,    0.0,   -0.3,    0.1,   -0.1,  999.0,   -0.0,    0.0,    0.0,  999.0,    0.1,    0.0,   -0.0,    0.0,  999.0,    0.1,  999.0,  999.0,  999.0,  999.0,  999.0,  999.0,  999.0,  999.0,  999.0,  999.0,  999.0,  999.0,  999.0,  999.0,  999.0,  999.0,  999.0,  999.0,  999.0,  999.0,  999.0,  999.0,  999.0,  999.0,  999.0,  999.0,   -1.1,   -0.9,   -1.0,   -1.1,   -1.2,   -1.0,   -1.3,   -0.9,   -1.1,   -1.0,  999.0,   -0.9,  999.0,  999.0,  999.0,  999.0,  999.0,  999.0,  999.0,  999.0,  999.0
2014/09/19 05:00,  999.0,    0.2,    0.1,  999.0,  999.0,  999.0,  999.0,    0.3,   -0.0,    0.3,   -0.0,   -0.1,    0.2,    0.2,    0.3,    0.4,   -0.0,    0.0,    0.0,   -0.0,   -0.1,   -0.0,   -0.0,   -0.0,    0.0,   -0.0,   -0.0,   -0.0,  999.0,  999.0,  999.0,  999.0,  999.0,  999.0,  999.0,  999.0,  999.0,  999.0,  999.0,  999.0,  999.0,  999.0,  999.0,  999.0,  999.0,  999.0,  999.0,  999.0,  999.0,  999.0,  999.0,  999.0,  999.0,  999.0,  999.0,  999.0,  999.0,  999.0,  999.0,  999.0,   -1.1,   -1.0,   -1.1,   -1.2,   -1.1,   -0.9,   -0.9,   -0.9,  999.0,  999.0,  999.0,   -0.8,  999.0,  999.0,  999.0,  999.0,  999.0,  999.0,  999.0,  999.0
2014/09/19 05:10,  999.0,   -0.0,  999.0,  999.0,  999.0,  999.0,  999.0,   -0.3,   -0.6,   -0.7,   -0.7,   -0.9,   -0.9,   -0.9,   -1.0,  999.0,   -0.3,   -0.6,   -0.3,   -0.3,   -0.2,   -0.1,   -0.0,  999.0,  999.0,    0.0,    0.0,  999.0,  999.0,  999.0,  999.0,  999.0,  999.0,  999.0,  999.0,  999.0,  999.0,  999.0,  999.0,  999.0,  999.0,  999.0,  999.0,  999.0,  999.0,  999.0,  999.0,  999.0,  999.0,  999.0,  999.0,  999.0,  999.0,  999.0,  999.0,  999.0,  999.0,  999.0,  999.0,  999.0,  999.0,   -1.4,   -1.2,   -1.0,   -1.0,   -1.1,   -1.1,   -1.1,   -1.1,  999.0,  999.0,  999.0,  999.0,   -0.8,  999.0,  999.0,  999.0,  999.0,  999.0,  999.0
2014/09/19 05:20,  999.0,    0.0,  999.0,  999.0,  999.0,    0.1,   -0.2,   -0.4,   -0.6,   -0.7,   -0.7,   -0.8,   -0.9,   -0.9,   -0.9,   -0.7,   -0.7,   -0.4,   -0.7,   -0.8,   -0.5,   -0.1,  999.0,  999.0,  999.0,    0.0,    0.0,    0.1,   -0.0,  999.0,    0.0,  999.0,  999.0,  999.0,  999.0,  999.0,  999.0,  999.0,  999.0,  999.0,  999.0,  999.0,  999.0,  999.0,  999.0,  999.0,  999.0,  999.0,  999.0,  999.0,  999.0,  999.0,  999.0,  999.0,  999.0,  999.0,  999.0,  999.0,  999.0,   -0.9,   -1.0,   -1.0,   -0.9,   -0.9,   -0.9,   -0.9,   -0.9,   -0.9,  999.0,   -1.1,   -0.7,   -0.9,  999.0,  999.0,  999.0,  999.0,  999.0,  999.0,  999.0,  999.0
2014/09/19 05:30,    0.3,   -0.1,    0.0,   -0.0,   -0.0,   -0.2,   -0.3,   -0.3,   -0.4,   -0.5,   -0.6,   -0.6,   -0.6,   -0.8,   -0.7,   -0.4,   -0.3,   -0.1,   -0.2,   -0.4,   -0.1,   -0.1,    0.0,  999.0,   -0.0,  999.0,    0.1,  999.0,  999.0,  999.0,  999.0,  999.0,  999.0,  999.0,  999.0,  999.0,  999.0,  999.0,  999.0,  999.0,  999.0,  999.0,  999.0,  999.0,  999.0,  999.0,  999.0,  999.0,  999.0,  999.0,  999.0,  999.0,  999.0,  999.0,  999.0,  999.0,  999.0,  999.0,  999.0,   -1.2,   -1.1,   -1.2,   -1.1,   -1.2,   -1.1,   -1.2,   -1.2,   -1.3,  999.0,  999.0,  999.0,  999.0,  999.0,  999.0,  999.0,  999.0,  999.0,  999.0,  999.0,  999.0
2014/09/19 05:40,   -0.0,    0.1,    0.2,    0.2,    0.2,    0.2,    0.2,    0.3,    0.2,    0.3,    0.3,    0.4,    0.4,    0.5,    0.4,  999.0,    0.3,    0.1,  999.0,   -0.0,   -0.0,    0.1,   -0.0,    0.0,   -0.0,    0.0,    0.0,    0.0,   -0.0,    0.0,    0.0,  999.0,  999.0,  999.0,  999.0,  999.0,  999.0,  999.0,  999.0,  999.0,  999.0,  999.0,  999.0,  999.0,  999.0,  999.0,  999.0,  999.0,  999.0,  999.0,  999.0,  999.0,   -0.3,  999.0,  999.0,  999.0,  999.0,   -1.6,   -1.5,   -1.5,   -1.4,   -1.4,   -1.3,   -1.3,   -1.3,   -1.3,   -1.2,   -1.2,   -1.3,   -1.0,   -1.2,   -1.0,   -1.1,   -0.9,  999.0,  999.0,  999.0,  999.0,  999.0,  999.0
2014/09/19 05:50,  999.0,    0.1,    0.2,    0.3,    0.3,    0.4,    0.5,    0.5,    0.6,    0.5,    0.5,    0.5,    0.8,    0.7,    0.5,  999.0,  999.0,  999.0,  999.0,    0.0,    0.0,    0.0,    0.1,  999.0,  999.0,    0.0,    0.0,   -0.0,  999.0,  999.0,    0.0,  999.0,  999.0,  999.0,  999.0,  999.0,  999.0,  999.0,  999.0,  999.0,  999.0,  999.0,  999.0,  999.0,  999.0,  999.0,  999.0,  999.0,  999.0,  999.0,  999.0,  999.0,  999.0,  999.0,  999.0,  999.0,  999.0,   -1.8,   -1.5,   -1.5,   -1.4,   -1.4,   -1.4,   -1.4,   -1.2,   -1.4,   -1.1,   -1.3,   -1.3,   -1.4,   -1.4,   -1.3,   -1.3,  999.0,  999.0,  999.0,  999.0,  999.0,  999.0,  999.0
2014/09/19 06:00,  999.0,    0.1,    0.2,    0.2,    0.4,    0.3,    0.4,    0.3,    0.4,    0.1,    0.0,   -0.2,  999.0,   -0.1,  999.0,    0.1,  999.0,  999.0,    0.4,    0.1,    0.0,    0.1,    0.0,   -0.0,    0.0,   -0.0,    0.1,   -0.1,  999.0,  999.0,    0.0,  999.0,  999.0,  999.0,  999.0,  999.0,  999.0,  999.0,  999.0,  999.0,  999.0,  999.0,  999.0,  999.0,  999.0,  999.0,  999.0,  999.0,   -0.3,  999.0,  999.0,  999.0,  999.0,  999.0,  999.0,  999.0,   -2.1,   -1.7,   -1.5,   -1.4,   -1.3,   -1.3,   -1.3,   -1.3,   -1.2,   -1.3,   -1.3,   -1.3,   -1.2,   -1.2,   -1.2,   -1.2,   -1.3,   -1.1,  999.0,  999.0,  999.0,  999.0,  999.0,  999.0
2014/09/19 06:10,    0.7,    0.0,    0.0,    0.0,    0.0,    0.1,    0.1,    0.4,   -0.0,   -0.0,    0.1,    0.2,   -0.0,    0.3,  999.0,    0.2,    0.3,    0.1,    0.1,    0.0,    0.0,   -0.0,   -0.1,    0.0,   -0.2,    0.0,    0.1,  999.0,  999.0,  999.0,  999.0,  999.0,  999.0,  999.0,  999.0,  999.0,  999.0,  999.0,  999.0,  999.0,  999.0,  999.0,  999.0,  999.0,  999.0,  999.0,  999.0,  999.0,   -0.3,  999.0,  999.0,  999.0,  999.0,  999.0,  999.0,  999.0,   -1.3,   -1.2,   -1.0,   -1.2,   -1.2,   -1.3,   -1.3,   -1.2,   -1.1,   -1.3,   -1.3,   -1.2,   -1.3,  999.0,   -1.2,  999.0,  999.0,  999.0,  999.0,  999.0,  999.0,  999.0,  999.0,  999.0
2014/09/19 06:20,  999.0,   -0.0,   -0.1,   -0.1,    0.0,    0.1,    0.1,    0.2,    0.2,    0.2,    0.1,    0.1,    0.1,    0.2,    0.1,    0.1,  999.0,    0.2,  999.0,  999.0,    0.0,  999.0,    0.0,   -0.1,    0.0,   -0.0,    0.0,  999.0,  999.0,  999.0,  999.0,    0.0,  999.0,  999.0,  999.0,  999.0,  999.0,  999.0,  999.0,  999.0,  999.0,  999.0,  999.0,  999.0,  999.0,  999.0,  999.0,  999.0,  999.0,    0.0,  999.0,    0.4,  999.0,  999.0,  999.0,  999.0,  999.0,   -1.3,   -1.2,  999.0,   -1.0,   -1.0,  999.0,  999.0,   -0.9,  999.0,  999.0,  999.0,  999.0,  999.0,  999.0,  999.0,  999.0,  999.0,  999.0,  999.0,  999.0,  999.0,  999.0,  999.0
2014/09/19 06:30,  999.0,    0.1,    0.1,    0.2,    0.2,    0.3,    0.3,    0.2,    0.2,    0.2,    0.3,    0.2,    0.3,    0.3,    0.2,    0.2,    0.1,  999.0,  999.0,    0.0,   -0.1,  999.0,    0.0,  999.0,  999.0,    0.1,  999.0,  999.0,  999.0,  999.0,   -0.0,  999.0,  999.0,  999.0,  999.0,  999.0,  999.0,  999.0,  999.0,  999.0,  999.0,  999.0,  999.0,  999.0,  999.0,  999.0,  999.0,  999.0,  999.0,  999.0,  999.0,  999.0,  999.0,  999.0,  999.0,  999.0,  999.0,  999.0,  999.0,   -1.5,  999.0,  999.0,  999.0,  999.0,  999.0,  999.0,  999.0,  999.0,  999.0,  999.0,  999.0,  999.0,  999.0,  999.0,  999.0,  999.0,  999.0,  999.0,  999.0,  999.0
2014/09/19 06:40,  999.0,   -0.0,    0.1,    0.2,    0.1,    0.1,    0.1,    0.2,    0.3,    0.3,    0.1,  999.0,  999.0,    0.3,    0.2,    0.1,    0.0,   -0.1,  999.0,  999.0,   -0.0,    0.0,   -0.0,  999.0,  999.0,   -0.0,  999.0,  999.0,  999.0,  999.0,  999.0,  999.0,  999.0,  999.0,  999.0,  999.0,  999.0,  999.0,  999.0,  999.0,  999.0,  999.0,  999.0,  999.0,  999.0,  999.0,  999.0,  999.0,  999.0,  999.0,  999.0,  999.0,  999.0,  999.0,  999.0,  999.0,  999.0,  999.0,  999.0,  999.0,  999.0,  999.0,   -1.4,  999.0,  999.0,  999.0,  999.0,  999.0,  999.0,  999.0,  999.0,  999.0,  999.0,  999.0,  999.0,  999.0,  999.0,  999.0,  999.0,  999.0
2014/09/19 06:50,  999.0,    0.1,    0.0,   -0.0,    0.0,    0.0,    0.0,    0.0,   -0.1,   -0.1,   -0.0,   -0.4,  999.0,   -0.1,   -0.1,   -0.1,   -0.1,   -0.0,  999.0,    0.1,    0.1,   -0.2,  999.0,  999.0,  999.0,  999.0,  999.0,  999.0,  999.0,  999.0,    0.0,  999.0,  999.0,  999.0,  999.0,  999.0,  999.0,  999.0,  999.0,  999.0,  999.0,  999.0,  999.0,  999.0,  999.0,  999.0,  999.0,  999.0,  999.0,  999.0,  999.0,  999.0,  999.0,  999.0,  999.0,  999.0,  999.0,  999.0,   -1.5,   -1.3,   -1.2,   -1.3,   -1.3,   -1.2,   -1.2,   -1.1,   -1.2,   -1.1,   -1.2,   -1.2,   -1.2,   -1.1,   -1.4,   -1.0,   -1.3,   -1.2,   -1.1,   -1.3,   -1.2,   -0.6
2014/09/19 07:00,  999.0,    0.1,    0.3,    0.2,   -0.0,    0.1,    0.1,    0.1,    0.2,    0.4,    0.2,    0.2,  999.0,    0.1,    0.4,    0.1,    0.1,    0.0,  999.0,  999.0,    0.0,   -0.0,  999.0,  999.0,  999.0,   -0.1,  999.0,  999.0,  999.0,  999.0,  999.0,  999.0,  999.0,  999.0,  999.0,  999.0,  999.0,  999.0,  999.0,  999.0,  999.0,  999.0,  999.0,  999.0,  999.0,  999.0,  999.0,  999.0,  999.0,  999.0,  999.0,   -1.5,   -1.4,   -1.5,   -1.6,   -1.5,   -1.4,   -1.3,   -1.3,   -1.3,   -1.2,   -1.2,   -1.1,   -1.1,   -1.1,   -1.2,   -1.0,   -1.2,   -1.0,   -1.0,   -1.0,   -1.1,   -1.0,  999.0,  999.0,   -1.0,  999.0,  999.0,  999.0,   -0.5
2014/09/19 07:10,  999.0,    0.1,    0.1,    0.1,    0.1,    0.1,   -0.0,   -0.2,   -0.1,   -0.1,   -0.2,    0.3,  999.0,   -0.3,  999.0,    0.0,   -0.1,   -0.1,   -0.1,  999.0,  999.0,   -0.2,    0.1,   -0.0,  999.0,   -0.0,  999.0,   -0.0,  999.0,  999.0,  999.0,  999.0,  999.0,  999.0,  999.0,  999.0,  999.0,  999.0,  999.0,  999.0,  999.0,  999.0,    0.2,    0.2,    0.5,    0.6,    0.6,  999.0,  999.0,  999.0,  999.0,  999.0,  999.0,   -1.3,   -1.3,   -1.3,   -1.3,   -1.1,   -1.0,   -1.0,   -1.0,   -1.1,   -1.0,   -1.0,   -1.1,   -1.0,   -0.9,   -0.9,   -0.9,   -1.0,   -0.8,   -0.8,   -0.7,   -0.8,   -0.7,   -0.9,   -0.2,  999.0,  999.0,  999.0
2014/09/19 07:20,    0.3,    0.1,    0.1,   -0.0,   -0.1,   -0.2,   -0.3,   -0.3,   -0.3,   -0.4,   -0.6,  999.0,   -0.7,   -0.5,   -0.2,  999.0,  999.0,  999.0,  999.0,    0.0,  999.0,    0.1,  999.0,  999.0,  999.0,  999.0,  999.0,  999.0,  999.0,  999.0,  999.0,  999.0,  999.0,  999.0,  999.0,  999.0,  999.0,  999.0,  999.0,  999.0,  999.0,  999.0,  999.0,  999.0,  999.0,    0.2,  999.0,  999.0,  999.0,  999.0,  999.0,  999.0,  999.0,  999.0,  999.0,   -1.1,   -0.8,   -0.8,   -0.7,   -0.9,   -0.8,   -0.7,   -0.8,   -0.9,   -0.8,   -0.8,   -0.9,   -0.8,   -0.8,   -0.8,   -0.7,   -0.9,   -0.8,   -0.8,   -0.8,  999.0,  999.0,  999.0,  999.0,  999.0
2014/09/19 07:30,  999.0,    0.1,    0.0,    0.0,   -0.0,   -0.1,   -0.0,   -0.1,   -0.1,   -0.2,   -0.4,  999.0,   -0.5,   -0.5,   -0.5,   -0.0,    0.1,   -0.0,  999.0,  999.0,    0.0,   -0.0,    0.0,  999.0,  999.0,    0.0,    0.0,  999.0,  999.0,  999.0,  999.0,  999.0,  999.0,  999.0,  999.0,  999.0,  999.0,  999.0,  999.0,  999.0,  999.0,  999.0,  999.0,  999.0,  999.0,  999.0,    0.0,  999.0,  999.0,  999.0,  999.0,  999.0,  999.0,  999.0,  999.0,  999.0,  999.0,   -0.8,   -1.0,   -1.0,   -1.0,   -1.1,   -1.1,   -1.1,   -1.1,   -0.9,   -1.0,   -0.9,   -0.9,   -0.9,   -0.8,   -0.8,   -1.0,   -0.8,   -0.7,  999.0,  999.0,  999.0,  999.0,  999.0
2014/09/19 07:40,  999.0,    0.1,    0.2,    0.3,    0.3,    0.2,    0.0,    0.1,   -0.1,   -0.1,   -0.0,    0.3,    0.0,   -0.2,    0.2,  999.0,  999.0,  999.0,  999.0,  999.0,    0.0,    0.0,   -0.1,  999.0,  999.0,  999.0,  999.0,  999.0,  999.0,  999.0,  999.0,  999.0,  999.0,  999.0,  999.0,  999.0,  999.0,  999.0,  999.0,  999.0,  999.0,  999.0,  999.0,  999.0,  999.0,  999.0,  999.0,  999.0,  999.0,  999.0,  999.0,  999.0,  999.0,  999.0,    0.2,  999.0,   -0.9,   -1.0,   -0.9,   -1.2,   -1.1,   -1.1,   -1.0,   -1.0,   -1.0,   -1.0,   -0.9,   -1.0,   -0.9,   -0.9,   -0.8,   -1.0,   -0.9,   -1.1,  999.0,  999.0,  999.0,  999.0,  999.0,  999.0
2014/09/19 07:50,  999.0,  999.0,    0.1,    0.1,   -0.0,    0.0,   -0.0,   -0.0,   -0.0,   -0.1,   -0.2,   -0.3,   -0.2,  999.0,   -0.3,   -0.2,  999.0,  999.0,  999.0,  999.0,    0.0,  999.0,  999.0,  999.0,  999.0,  999.0,  999.0,  999.0,  999.0,  999.0,  999.0,  999.0,  999.0,  999.0,  999.0,  999.0,  999.0,  999.0,  999.0,  999.0,  999.0,  999.0,  999.0,  999.0,  999.0,  999.0,    0.0,   -0.0,    0.0,    0.1,    0.2,    0.5,    0.3,  999.0,    0.4,  999.0,   -0.9,   -0.9,   -0.9,   -1.0,   -1.1,   -1.1,   -1.1,   -1.0,   -1.1,   -1.0,   -0.8,   -0.9,   -0.8,   -0.9,   -0.8,   -0.6,  999.0,   -0.8,  999.0,  999.0,  999.0,  999.0,  999.0,  999.0
2014/09/19 08:00,   -0.1,    0.0,   -0.0,   -0.1,   -0.1,   -0.1,   -0.1,   -0.1,   -0.2,   -0.2,   -0.1,   -0.3,  999.0,  999.0,   -0.1,    0.3,  999.0,  999.0,  999.0,    0.0,    0.1,    0.0,   -0.0,  999.0,  999.0,    0.0,   -0.0,  999.0,  999.0,  999.0,  999.0,  999.0,  999.0,  999.0,  999.0,  999.0,  999.0,  999.0,  999.0,  999.0,  999.0,  999.0,  999.0,  999.0,    0.0,  999.0,    0.1,  999.0,   -0.0,   -0.1,   -0.2,    0.0,  999.0,   -0.4,  999.0,   -0.9,   -1.1,   -1.1,   -1.1,   -1.2,   -1.0,   -1.1,   -1.2,   -1.1,   -1.1,   -1.0,   -1.1,   -1.0,   -1.0,   -0.8,   -0.8,   -0.7,   -0.8,   -0.7,   -0.7,   -0.7,   -0.6,   -0.7,   -0.6,  999.0
2014/09/19 08:10,  999.0,    0.0,    0.1,    0.1,    0.0,   -0.1,   -0.1,   -0.1,   -0.2,   -0.2,   -0.2,   -0.2,  999.0,  999.0,   -0.1,   -0.3,  999.0,  999.0,  999.0,    0.0,    0.1,   -0.0,  999.0,  999.0,  999.0,  999.0,  999.0,  999.0,  999.0,  999.0,  999.0,  999.0,  999.0,  999.0,  999.0,  999.0,  999.0,  999.0,  999.0,  999.0,  999.0,  999.0,  999.0,  999.0,  999.0,  999.0,  999.0,  999.0,  999.0,  999.0,  999.0,  999.0,  999.0,  999.0,  999.0,   -1.4,   -1.4,   -1.1,   -1.3,   -1.3,   -1.3,   -1.2,   -1.3,   -1.2,   -1.2,   -1.2,   -1.1,   -1.1,   -1.1,   -1.0,   -1.1,   -1.0,   -1.0,   -1.0,   -0.8,   -0.9,   -1.1,  999.0,  999.0,  999.0
2014/09/19 08:20,    0.4,   -0.0,    0.0,    0.0,   -0.1,   -0.1,   -0.1,   -0.2,   -0.2,   -0.3,   -0.3,   -0.3,  999.0,   -0.4,   -0.3,   -0.3,   -0.1,  999.0,  999.0,   -0.1,   -0.0,    0.0,   -0.1,  999.0,   -0.0,    0.1,   -0.0,  999.0,  999.0,    0.0,  999.0,  999.0,  999.0,  999.0,  999.0,  999.0,  999.0,  999.0,  999.0,  999.0,  999.0,  999.0,  999.0,  999.0,  999.0,  999.0,  999.0,  999.0,  999.0,  999.0,  999.0,  999.0,  999.0,  999.0,  999.0,   -1.6,   -1.6,   -1.4,   -1.3,   -1.2,   -1.3,   -1.3,   -1.1,   -1.1,   -1.0,   -1.0,   -1.2,   -1.2,   -1.1,   -1.1,   -1.2,   -1.1,   -1.1,   -1.1,   -1.1,   -1.2,   -1.1,   -1.1,   -1.1,   -1.0
2014/09/19 08:30,  999.0,   -0.1,   -0.1,   -0.1,   -0.2,   -0.2,   -0.3,   -0.3,   -0.3,   -0.3,   -0.3,   -0.1,  999.0,    0.2,   -0.1,   -0.0,  999.0,  999.0,  999.0,   -0.0,   -0.0,  999.0,    0.0,  999.0,    0.1,    0.2,  999.0,  999.0,  999.0,  999.0,  999.0,  999.0,  999.0,  999.0,  999.0,  999.0,  999.0,  999.0,  999.0,  999.0,  999.0,  999.0,  999.0,  999.0,  999.0,  999.0,  999.0,  999.0,  999.0,  999.0,  999.0,  999.0,  999.0,  999.0,  999.0,  999.0,  999.0,   -1.1,   -1.3,   -1.4,   -1.5,   -1.3,   -1.3,   -1.3,   -1.3,   -1.4,   -1.1,   -1.2,   -1.4,   -1.1,   -1.2,   -1.2,   -1.2,   -1.2,   -1.1,   -1.1,   -1.1,   -0.9,   -0.9,   -1.0
2014/09/19 08:40,    0.2,   -0.0,   -0.1,   -0.1,   -0.1,   -0.1,   -0.1,   -0.2,   -0.2,   -0.2,   -0.2,   -0.0,  999.0,    0.4,  999.0,    0.0,  999.0,  999.0,  999.0,    0.0,   -0.0,    0.0,    0.1,    0.3,  999.0,  999.0,    0.4,  999.0,  999.0,  999.0,  999.0,  999.0,  999.0,  999.0,  999.0,  999.0,  999.0,  999.0,  999.0,  999.0,  999.0,  999.0,  999.0,  999.0,  999.0,  999.0,  999.0,  999.0,  999.0,  999.0,  999.0,  999.0,  999.0,  999.0,  999.0,  999.0,  999.0,   -1.1,   -1.0,   -1.1,   -1.1,   -1.3,   -1.2,   -1.1,   -1.0,   -1.1,   -1.1,   -0.9,   -1.0,   -1.0,   -1.0,   -1.1,   -1.0,   -1.0,   -0.9,   -1.0,   -1.0,   -1.0,   -0.9,   -0.9
2014/09/19 08:50,  999.0,    0.1,    0.0,    0.0,    0.1,    0.1,    0.1,    0.1,    0.1,    0.2,    0.2,  999.0,  999.0,  999.0,  999.0,    0.0,  999.0,  999.0,  999.0,  999.0,   -0.1,  999.0,   -0.1,  999.0,  999.0,   -0.3,  999.0,  999.0,  999.0,  999.0,   -0.0,  999.0,  999.0,  999.0,  999.0,  999.0,  999.0,  999.0,  999.0,  999.0,  999.0,  999.0,  999.0,  999.0,  999.0,  999.0,  999.0,  999.0,  999.0,  999.0,  999.0,  999.0,  999.0,  999.0,  999.0,  999.0,  999.0,   -1.6,   -1.3,   -1.0,   -1.2,   -1.2,   -1.2,   -1.2,   -1.1,   -1.2,   -1.0,   -0.9,   -0.9,   -0.9,   -0.9,   -0.9,   -1.0,   -0.9,   -1.0,   -0.8,   -0.8,   -0.8,   -0.9,   -0.6
2014/09/19 09:00,  999.0,   -0.1,   -0.1,   -0.2,   -0.2,   -0.2,   -0.2,   -0.3,   -0.3,   -0.3,   -0.3,   -0.3,  999.0,  999.0,  999.0,  999.0,  999.0,  999.0,  999.0,   -0.0,    0.0,  999.0,   -0.0,   -0.0,  999.0,  999.0,  999.0,  999.0,  999.0,  999.0,  999.0,  999.0,  999.0,  999.0,  999.0,  999.0,  999.0,  999.0,  999.0,  999.0,  999.0,  999.0,  999.0,  999.0,  999.0,  999.0,   -0.3,  999.0,  999.0,  999.0,  999.0,  999.0,  999.0,  999.0,  999.0,  999.0,  999.0,   -0.9,   -1.1,   -0.9,   -0.9,   -1.1,   -1.3,   -1.3,   -1.3,   -1.4,   -1.3,   -1.3,   -1.3,   -1.3,   -1.2,   -1.0,   -1.1,   -1.1,   -0.8,   -0.9,   -0.9,   -0.8,   -0.9,   -0.9
2014/09/19 09:10,    0.5,    0.1,    0.1,    0.1,    0.0,  999.0,    0.0,   -0.0,    0.1,    0.2,  999.0,    0.1,  999.0,  999.0,  999.0,  999.0,  999.0,  999.0,  999.0,   -0.0,   -0.1,   -0.0,    0.1,   -0.0,  999.0,    0.0,    0.0,  999.0,  999.0,    0.0,  999.0,  999.0,  999.0,  999.0,  999.0,  999.0,  999.0,  999.0,  999.0,  999.0,  999.0,  999.0,  999.0,  999.0,  999.0,  999.0,   -0.2,    0.0,    0.4,    0.3,    0.4,  999.0,  999.0,  999.0,   -0.7,   -0.7,   -1.1,   -1.0,   -1.0,   -1.1,   -1.1,   -1.1,   -1.2,   -1.2,   -1.3,   -1.2,   -1.1,   -1.1,   -1.1,   -1.0,   -1.0,   -1.0,   -1.1,   -0.9,   -0.9,   -0.9,   -0.9,   -1.0,   -0.9,   -1.0
2014/09/19 09:20,  999.0,    0.0,    0.0,    0.0,    0.0,    0.0,    0.1,    0.1,    0.1,    0.1,    0.1,  999.0,  999.0,  999.0,  999.0,  999.0,  999.0,  999.0,  999.0,   -0.1,  999.0,   -0.0,    0.0,  999.0,   -0.2,  999.0,  999.0,  999.0,  999.0,  999.0,  999.0,  999.0,  999.0,  999.0,  999.0,  999.0,  999.0,  999.0,  999.0,  999.0,  999.0,  999.0,  999.0,    0.1,    0.1,    0.1,    0.1,    0.4,    0.4,  999.0,  999.0,  999.0,  999.0,   -1.8,   -1.9,   -1.6,   -1.3,   -1.3,   -1.3,   -1.3,   -1.3,   -1.3,   -1.2,   -1.2,   -1.3,   -1.3,   -1.2,   -1.2,   -1.1,   -1.2,   -1.1,   -1.1,   -1.2,   -1.1,   -1.0,   -1.0,   -1.1,   -1.0,   -1.0,   -1.1
2014/09/19 09:30,  999.0,   -0.0,   -0.1,   -0.2,   -0.2,   -0.1,   -0.1,   -0.1,   -0.1,   -0.1,    0.0,  999.0,  999.0,  999.0,  999.0,  999.0,  999.0,  999.0,  999.0,  999.0,    0.1,   -0.0,    0.1,    0.1,  999.0,  999.0,   -0.0,  999.0,  999.0,   -0.0,  999.0,  999.0,  999.0,  999.0,  999.0,  999.0,  999.0,  999.0,  999.0,  999.0,  999.0,   -0.1,    0.2,    0.3,    0.3,    0.2,  999.0,  999.0,  999.0,  999.0,  999.0,  999.0,  999.0,   -2.0,   -1.8,   -1.6,   -1.3,   -1.2,   -1.2,   -1.2,   -1.0,   -1.2,   -1.2,   -1.2,   -1.2,   -1.3,   -1.1,   -1.2,   -1.2,   -1.1,   -1.1,   -1.0,   -1.0,   -1.0,   -0.9,   -1.1,   -1.1,   -1.0,   -0.9,   -1.1
2014/09/19 09:40,    0.8,   -0.1,    0.0,    0.0,    0.1,    0.1,    0.2,    0.2,    0.3,    0.3,    0.5,    0.2,  999.0,  999.0,  999.0,  999.0,  999.0,  999.0,  999.0,  999.0,   -0.0,  999.0,  999.0,  999.0,    0.1,    0.2,  999.0,  999.0,  999.0,  999.0,  999.0,  999.0,  999.0,  999.0,  999.0,  999.0,  999.0,  999.0,  999.0,  999.0,  999.0,  999.0,    0.3,    0.2,  999.0,  999.0,  999.0,  999.0,  999.0,  999.0,  999.0,  999.0,   -2.1,   -2.1,   -2.0,   -1.7,   -1.6,   -1.6,   -1.6,   -1.6,   -1.6,   -1.4,   -1.4,   -1.3,   -1.3,   -1.3,   -1.3,   -1.3,   -1.2,   -1.2,   -1.2,   -1.3,   -1.2,   -1.2,   -1.1,   -1.1,   -1.1,   -1.1,   -1.0,   -1.0
2014/09/19 09:50,    0.1,   -0.1,   -0.1,   -0.1,   -0.1,    0.0,    0.0,    0.2,    0.1,    0.2,    0.2,    0.2,  999.0,   -0.0,  999.0,  999.0,  999.0,   -0.1,  999.0,   -0.0,    0.0,    0.0,  999.0,  999.0,  999.0,  999.0,  999.0,  999.0,  999.0,  999.0,  999.0,  999.0,  999.0,  999.0,  999.0,  999.0,  999.0,  999.0,  999.0,  999.0,  999.0,  999.0,  999.0,  999.0,  999.0,  999.0,  999.0,  999.0,  999.0,  999.0,  999.0,  999.0,   -1.7,   -1.7,   -1.3,   -1.3,   -1.4,   -1.4,   -1.4,   -1.3,   -1.3,   -1.3,   -1.2,   -1.3,   -1.3,   -1.2,   -1.2,   -1.2,   -1.2,   -1.1,   -1.1,   -1.1,   -1.0,   -1.0,   -1.1,   -1.1,   -1.0,   -1.0,   -1.2,   -1.1
2014/09/19 10:00,    0.2,   -0.1,   -0.2,   -0.2,   -0.3,   -0.3,   -0.3,   -0.4,   -0.4,   -0.5,   -0.4,  999.0,  999.0,  999.0,  999.0,  999.0,  999.0,  999.0,  999.0,    0.0,    0.1,  999.0,  999.0,  999.0,  999.0,  999.0,  999.0,  999.0,  999.0,  999.0,  999.0,  999.0,  999.0,  999.0,  999.0,  999.0,  999.0,  999.0,  999.0,  999.0,  999.0,  999.0,  999.0,  999.0,  999.0,  999.0,  999.0,  999.0,    0.6,  999.0,  999.0,  999.0,  999.0,  999.0,   -1.2,   -1.1,   -1.3,   -1.4,   -1.4,   -1.5,   -1.6,   -1.6,   -1.4,   -1.5,   -1.4,   -1.4,   -1.4,   -1.4,   -1.4,   -1.3,   -1.3,   -1.4,   -1.3,   -1.2,   -1.3,   -1.2,   -1.2,   -1.1,   -1.1,   -1.1
2014/09/19 10:10,  999.0,   -0.0,   -0.0,    0.0,   -0.0,   -0.2,   -0.2,   -0.1,   -0.2,   -0.4,   -0.1,  999.0,  999.0,  999.0,  999.0,  999.0,  999.0,  999.0,  999.0,  999.0,  999.0,  999.0,  999.0,  999.0,  999.0,  999.0,  999.0,  999.0,  999.0,  999.0,  999.0,  999.0,  999.0,  999.0,  999.0,  999.0,  999.0,  999.0,  999.0,  999.0,  999.0,    0.7,  999.0,  999.0,  999.0,   -0.5,    0.3,    0.5,    0.6,    0.6,    0.4,   -0.0,   -0.5,   -1.1,   -1.3,   -1.3,   -1.4,   -1.3,   -1.2,   -1.2,   -1.2,   -1.3,   -1.3,   -1.2,   -1.2,   -1.2,   -1.2,   -1.2,   -1.2,   -1.2,   -1.2,   -1.1,   -1.2,   -1.2,   -1.1,   -1.2,   -0.9,   -1.0,   -1.1,   -0.9
2014/09/19 10:20,    0.3,    0.4,    0.3,    0.3,    0.3,    0.4,    0.5,    0.7,    0.6,    0.6,    0.6,  999.0,  999.0,  999.0,  999.0,  999.0,  999.0,  999.0,  999.0,  999.0,    0.0,   -0.1,  999.0,  999.0,  999.0,  999.0,  999.0,  999.0,  999.0,  999.0,  999.0,  999.0,  999.0,  999.0,  999.0,  999.0,  999.0,  999.0,  999.0,  999.0,   -0.1,    0.0,    0.2,    0.0,    0.1,  999.0,  999.0,  999.0,  999.0,   -0.7,  999.0,   -1.0,   -1.3,   -1.4,   -1.4,   -1.3,   -1.3,   -1.3,   -1.3,   -1.2,   -1.2,   -1.2,   -1.1,   -1.2,   -1.0,   -1.0,   -1.1,   -1.1,   -1.2,   -1.2,   -1.2,   -1.1,   -1.1,   -1.1,   -1.0,   -1.0,   -1.0,   -0.9,   -0.8,   -0.8
2014/09/19 10:30,  999.0,    0.2,    0.3,    0.5,    0.5,    0.5,    0.7,    0.9,    0.8,    0.7,    0.6,  999.0,  999.0,  999.0,  999.0,  999.0,  999.0,  999.0,  999.0,  999.0,   -0.0,   -0.0,  999.0,   -0.2,   -0.1,  999.0,  999.0,  999.0,  999.0,  999.0,  999.0,  999.0,  999.0,  999.0,  999.0,  999.0,  999.0,  999.0,  999.0,  999.0,  999.0,    0.3,  999.0,  999.0,  999.0,  999.0,  999.0,  999.0,  999.0,  999.0,  999.0,  999.0,  999.0,   -0.8,   -0.9,   -1.0,   -1.2,   -1.3,   -1.2,   -1.2,   -1.1,   -1.1,   -1.1,   -1.0,   -1.0,   -0.9,   -0.9,   -0.8,   -0.9,   -0.8,   -0.9,   -0.8,   -0.9,   -0.8,   -0.8,   -0.6,   -0.8,   -0.6,   -0.6,   -0.7
2014/09/19 10:40,    0.3,    0.1,   -0.3,   -0.1,   -0.0,   -0.1,    0.0,   -0.1,   -0.3,   -0.3,   -0.3,   -0.2,  999.0,  999.0,  999.0,  999.0,  999.0,  999.0,  999.0,  999.0,   -0.1,   -0.0,  999.0,  999.0,  999.0,  999.0,  999.0,  999.0,  999.0,  999.0,  999.0,  999.0,  999.0,  999.0,  999.0,  999.0,  999.0,  999.0,  999.0,  999.0,  999.0,  999.0,  999.0,  999.0,  999.0,  999.0,  999.0,  999.0,  999.0,    0.5,  999.0,  999.0,  999.0,   -0.1,   -0.3,   -0.8,   -0.8,   -1.3,   -0.9,   -0.8,   -1.1,   -0.9,   -1.0,   -0.7,   -1.2,   -0.8,   -0.7,   -0.7,   -0.7,   -0.8,   -1.0,   -0.9,   -1.2,   -1.0,   -1.1,   -0.9,   -0.7,   -0.6,   -0.6,   -0.6
2014/09/19 10:50,    0.3,   -0.1,    0.1,    0.2,    0.3,    0.3,    0.1,    0.1,    0.1,    0.1,    0.1,    0.2,  999.0,  999.0,  999.0,  999.0,  999.0,  999.0,  999.0,   -0.1,   -0.1,    0.0,  999.0,  999.0,  999.0,  999.0,  999.0,  999.0,  999.0,  999.0,  999.0,  999.0,  999.0,  999.0,  999.0,  999.0,  999.0,  999.0,  999.0,  999.0,  999.0,  999.0,  999.0,  999.0,  999.0,    0.4,    0.1,    0.3,   -0.1,   -0.1,  999.0,  999.0,   -0.7,   -1.2,   -1.2,   -1.4,   -1.0,   -1.1,   -1.1,   -1.1,   -1.1,   -1.1,   -0.9,   -0.9,   -0.8,   -1.1,   -1.0,   -1.1,   -1.0,   -1.1,   -1.2,   -1.2,   -1.2,   -1.0,   -0.9,   -0.8,   -1.0,  999.0,  999.0,  999.0
2014/09/19 11:00,  999.0,    1.2,    0.7,    0.4,    0.3,    0.2,    0.2,    0.3,    0.1,    0.1,    0.0,   -0.1,   -0.5,  999.0,  999.0,  999.0,  999.0,  999.0,  999.0,  999.0,    0.3,   -0.0,    0.2,    0.0,  999.0,   -0.0,  999.0,  999.0,  999.0,  999.0,  999.0,  999.0,  999.0,  999.0,  999.0,  999.0,  999.0,  999.0,  999.0,  999.0,  999.0,  999.0,  999.0,  999.0,   -0.2,   -0.3,    0.1,   -0.2,    0.1,   -0.1,   -0.2,   -0.4,   -0.8,   -1.2,   -0.9,   -1.2,   -1.3,   -1.3,   -1.2,   -1.0,   -1.1,   -0.9,   -1.0,   -1.0,   -0.9,   -1.2,   -1.1,   -1.3,   -1.3,   -1.3,   -1.2,   -1.3,   -1.2,   -1.2,   -1.1,   -1.0,   -1.0,   -1.0,   -1.0,   -0.8
2014/09/19 11:10,  999.0,    0.5,    0.4,   -0.0,   -0.7,   -0.4,   -0.3,   -0.1,   -0.2,    0.0,   -0.2,   -0.2,   -0.2,  999.0,  999.0,  999.0,  999.0,  999.0,    0.0,    0.0,    0.2,   -0.0,  999.0,  999.0,  999.0,  999.0,  999.0,  999.0,  999.0,  999.0,  999.0,  999.0,  999.0,  999.0,  999.0,  999.0,  999.0,  999.0,  999.0,  999.0,  999.0,  999.0,  999.0,    0.2,  999.0,  999.0,  999.0,   -1.0,  999.0,  999.0,  999.0,  999.0,   -1.1,   -1.3,   -1.3,   -1.5,   -1.2,   -1.2,   -1.2,   -1.2,   -1.2,   -1.1,   -1.2,   -1.3,   -1.3,   -1.2,   -1.2,   -1.3,   -1.3,   -1.2,   -1.2,   -1.2,   -1.2,   -1.2,   -1.2,   -1.0,   -1.1,   -1.0,   -0.9,   -0.8
2014/09/19 11:20,  999.0,    0.2,    0.0,   -0.4,   -0.2,   -0.1,   -0.1,    0.0,    0.2,    0.0,    0.1,   -0.1,   -0.1,  999.0,   -0.1,  999.0,  999.0,  999.0,   -0.2,  999.0,   -0.0,   -0.0,  999.0,  999.0,  999.0,  999.0,  999.0,  999.0,  999.0,  999.0,  999.0,  999.0,  999.0,  999.0,  999.0,  999.0,  999.0,  999.0,  999.0,  999.0,  999.0,  999.0,  999.0,  999.0,  999.0,  999.0,  999.0,  999.0,  999.0,  999.0,  999.0,   -0.7,   -1.3,   -1.2,   -1.2,   -1.2,   -1.2,   -1.2,   -1.2,   -1.2,   -1.2,   -1.1,   -1.1,   -1.1,   -1.1,   -1.1,   -1.2,   -1.1,   -1.1,   -1.1,   -1.1,   -1.2,   -1.1,   -1.0,   -1.0,   -1.0,   -1.0,   -0.9,   -0.9,   -0.7
2014/09/19 11:30,   -0.1,   -0.2,   -0.4,    0.1,   -0.1,   -0.0,   -0.0,   -0.1,    0.1,    0.1,    0.1,    0.0,  999.0,  999.0,    0.2,  999.0,  999.0,    0.0,  999.0,  999.0,    0.1,   -0.0,    0.0,   -0.2,   -0.1,  999.0,   -0.0,  999.0,  999.0,    0.1,  999.0,  999.0,  999.0,  999.0,  999.0,  999.0,  999.0,  999.0,  999.0,  999.0,  999.0,  999.0,  999.0,  999.0,  999.0,  999.0,  999.0,  999.0,  999.0,  999.0,  999.0,   -1.0,   -1.3,   -1.2,   -1.1,   -1.2,   -1.2,   -1.2,   -1.2,   -1.1,   -1.1,   -1.0,   -1.0,   -1.0,   -1.2,   -1.1,   -1.2,   -1.2,   -1.1,   -1.0,   -1.1,   -1.1,   -1.0,   -0.9,   -0.9,   -0.8,   -1.0,   -0.7,   -0.7,   -0.7
2014/09/19 11:40,  999.0,   -0.5,   -0.3,   -0.1,   -0.0,   -0.1,   -0.0,    0.0,    0.1,   -0.1,    0.0,   -0.1,   -0.1,    0.3,    0.1,  999.0,  999.0,    0.0,  999.0,    0.1,    0.0,   -0.1,   -0.1,  999.0,   -0.0,   -0.0,    0.0,  999.0,  999.0,  999.0,  999.0,  999.0,  999.0,  999.0,  999.0,  999.0,  999.0,  999.0,  999.0,  999.0,  999.0,  999.0,  999.0,  999.0,  999.0,  999.0,  999.0,  999.0,  999.0,  999.0,  999.0,  999.0,  999.0,  999.0,  999.0,   -0.7,  999.0,   -1.2,   -1.3,   -0.8,   -0.4,   -0.8,   -0.9,   -0.8,   -1.2,   -1.1,   -1.0,   -1.0,   -1.0,   -1.0,   -1.3,   -1.1,  999.0,  999.0,  999.0,  999.0,  999.0,  999.0,  999.0,  999.0
2014/09/19 11:50,   -0.0,   -0.3,   -0.4,   -0.4,   -0.2,   -0.0,   -0.0,    0.0,    0.1,    0.0,   -0.0,    0.1,   -0.0,   -0.1,  999.0,  999.0,    0.1,    0.1,    0.1,    0.0,   -0.1,   -0.0,    0.0,  999.0,    0.0,   -0.1,   -0.0,    0.0,   -0.0,   -0.0,  999.0,    0.0,  999.0,  999.0,  999.0,  999.0,  999.0,  999.0,  999.0,  999.0,  999.0,  999.0,  999.0,  999.0,  999.0,  999.0,  999.0,  999.0,  999.0,  999.0,  999.0,  999.0,  999.0,  999.0,   -1.1,   -1.2,   -1.2,   -1.2,   -1.1,   -1.1,   -1.1,   -1.1,   -1.1,   -1.2,   -1.1,   -1.1,   -1.1,   -1.1,   -1.0,   -1.3,   -1.2,   -1.1,   -1.2,   -1.0,   -1.0,   -1.1,   -0.9,   -0.8,   -0.8,   -0.9
2014/09/19 12:00,    0.1,   -0.3,   -0.3,    0.3,    0.2,   -0.1,   -0.2,   -0.2,   -0.1,   -0.0,    0.0,   -0.1,  999.0,  999.0,  999.0,  999.0,  999.0,  999.0,  999.0,   -0.0,    0.0,    0.0,   -0.1,  999.0,  999.0,  999.0,   -0.0,   -0.0,  999.0,  999.0,  999.0,  999.0,  999.0,  999.0,  999.0,  999.0,  999.0,  999.0,  999.0,  999.0,  999.0,  999.0,  999.0,  999.0,  999.0,  999.0,  999.0,  999.0,    0.1,   -0.3,   -0.7,   -0.6,   -1.5,   -1.4,   -1.4,   -1.4,   -1.3,   -1.3,   -1.3,   -1.3,   -1.3,   -1.2,   -1.1,   -1.2,   -1.1,   -1.1,   -1.0,   -1.1,   -1.0,   -1.0,   -1.0,   -1.1,   -1.0,   -0.9,   -1.0,   -0.9,   -1.0,   -0.9,   -0.8,   -0.8
2014/09/19 12:10,  999.0,    0.0,    0.1,   -0.1,    0.1,   -0.4,   -0.2,  999.0,   -0.0,   -0.1,   -0.0,   -0.0,   -0.0,    0.3,    0.2,    0.2,    0.1,    0.1,    0.0,  999.0,   -0.0,    0.0,   -0.1,  999.0,   -0.0,   -0.0,  999.0,  999.0,  999.0,  999.0,  999.0,  999.0,  999.0,  999.0,  999.0,  999.0,  999.0,  999.0,  999.0,  999.0,  999.0,  999.0,  999.0,  999.0,  999.0,   -0.1,   -0.3,    0.4,   -0.1,   -0.5,   -1.1,   -1.5,   -1.5,   -1.5,   -1.4,   -1.3,   -1.3,   -1.1,   -1.2,   -1.2,   -1.2,   -1.1,   -1.2,   -1.2,   -1.3,   -1.3,   -1.2,   -1.0,   -1.2,   -1.2,   -1.1,   -1.1,   -1.0,  999.0,  999.0,  999.0,  999.0,  999.0,  999.0,  999.0
2014/09/19 12:20,    0.2,   -0.2,   -0.0,    0.2,    0.2,    0.2,    0.0,    0.1,    0.2,    0.1,    0.0,    0.1,    0.0,    0.1,   -0.0,    0.0,    0.1,   -0.0,   -0.0,   -0.0,   -0.0,    0.1,    0.1,  999.0,   -0.0,  999.0,    0.0,   -0.0,    0.1,   -0.0,   -0.0,   -0.0,  999.0,  999.0,  999.0,  999.0,  999.0,  999.0,  999.0,  999.0,  999.0,  999.0,    0.7,   -0.2,   -0.1,   -0.0,    0.2,    0.2,    0.2,   -0.3,   -0.5,   -0.9,   -0.8,   -1.0,   -0.9,   -1.0,   -1.1,   -1.1,   -1.0,   -0.9,   -1.0,   -1.0,   -1.0,   -1.0,   -0.9,   -0.9,   -0.9,   -1.0,   -0.9,   -1.2,   -1.0,   -1.1,   -1.1,  999.0,  999.0,  999.0,  999.0,  999.0,  999.0,  999.0
2014/09/19 12:30,    0.2,   -0.0,   -0.3,   -0.5,   -0.4,   -0.2,   -0.0,    0.0,   -0.2,   -0.2,   -0.2,   -0.2,   -0.1,   -0.2,   -0.1,  999.0,   -0.0,   -0.1,   -0.0,    0.0,    0.0,    0.0,    0.0,    0.0,    0.0,    0.0,   -0.0,    0.0,    0.0,    0.0,   -0.0,   -0.1,  999.0,  999.0,  999.0,  999.0,  999.0,  999.0,  999.0,  999.0,  999.0,    0.1,   -0.0,   -0.0,    0.0,    0.4,  999.0,  999.0,  999.0,  999.0,  999.0,  999.0,  999.0,  999.0,   -0.9,   -1.0,   -0.9,   -1.2,   -1.2,   -1.2,   -0.9,   -1.0,   -1.1,   -1.0,   -1.1,  999.0,  999.0,  999.0,  999.0,  999.0,  999.0,  999.0,  999.0,  999.0,  999.0,  999.0,  999.0,  999.0,  999.0,  999.0
2014/09/19 12:40,    0.1,   -0.4,   -0.5,   -0.4,   -0.2,   -0.2,   -0.3,   -0.4,   -0.4,   -0.3,   -0.2,   -0.2,  999.0,    0.4,    0.3,    0.0,    0.0,    0.1,  999.0,    0.1,    0.1,    0.0,    0.0,    0.0,   -0.0,   -0.0,    0.0,  999.0,    0.0,   -0.0,   -0.0,   -0.0,   -0.0,  999.0,  999.0,  999.0,  999.0,  999.0,  999.0,  999.0,  999.0,  999.0,    0.1,    0.1,  999.0,  999.0,  999.0,  999.0,  999.0,  999.0,  999.0,  999.0,  999.0,   -1.1,   -0.8,   -0.9,  999.0,  999.0,  999.0,  999.0,   -0.8,  999.0,   -0.6,  999.0,  999.0,  999.0,  999.0,  999.0,  999.0,  999.0,  999.0,  999.0,  999.0,  999.0,  999.0,  999.0,  999.0,  999.0,  999.0,  999.0
2014/09/19 12:50,    0.1,   -0.3,   -0.5,   -0.5,   -0.5,   -0.4,   -0.1,   -0.2,   -0.0,    0.1,    0.1,   -0.0,   -0.1,   -0.1,    0.2,    0.1,    0.0,   -0.0,   -0.1,   -0.0,   -0.0,   -0.1,    0.0,   -0.0,  999.0,   -0.0,  999.0,  999.0,    0.0,  999.0,    0.0,    0.0,    0.0,  999.0,  999.0,  999.0,  999.0,  999.0,  999.0,  999.0,  999.0,  999.0,  999.0,  999.0,  999.0,  999.0,  999.0,  999.0,  999.0,  999.0,  999.0,  999.0,  999.0,  999.0,  999.0,   -1.0,   -1.1,   -1.1,   -1.0,   -0.9,   -0.8,   -0.8,   -0.9,   -0.9,   -0.8,   -0.8,   -0.8,   -0.9,   -0.9,   -1.0,   -0.9,  999.0,  999.0,  999.0,  999.0,  999.0,  999.0,  999.0,  999.0,  999.0
2014/09/19 13:00,  999.0,   -0.2,   -0.6,   -0.7,   -0.3,   -0.0,  999.0,  999.0,   -0.1,   -0.1,   -0.1,   -0.1,  999.0,   -0.0,  999.0,    0.1,    0.1,    0.1,    0.0,   -0.0,    0.0,    0.1,  999.0,   -0.0,  999.0,  999.0,   -0.0,   -0.0,   -0.1,  999.0,  999.0,  999.0,  999.0,  999.0,  999.0,  999.0,  999.0,  999.0,  999.0,  999.0,  999.0,  999.0,  999.0,  999.0,  999.0,  999.0,  999.0,  999.0,    0.2,  999.0,  999.0,  999.0,   -1.3,   -1.2,   -1.1,   -1.1,   -1.1,   -1.1,   -1.2,   -1.1,   -1.0,   -1.0,   -1.0,   -1.0,   -0.9,   -0.8,   -0.8,   -0.8,   -0.8,   -0.6,   -0.7,   -0.6,   -0.5,  999.0,  999.0,  999.0,  999.0,  999.0,  999.0,  999.0
2014/09/19 13:10,   -0.1,   -0.1,   -0.6,   -0.5,   -0.4,   -0.2,   -0.1,    0.1,   -0.3,    0.3,    0.2,    0.1,    0.2,   -0.0,    0.1,    0.0,   -0.0,    0.0,   -0.0,   -0.1,   -0.0,    0.0,    0.0,    0.0,    0.0,   -0.1,    0.1,    0.1,  999.0,   -0.0,    0.0,  999.0,  999.0,  999.0,  999.0,  999.0,  999.0,  999.0,  999.0,  999.0,  999.0,    0.2,    0.0,   -0.5,   -0.6,   -0.4,  999.0,  999.0,   -0.4,  999.0,   -1.9,   -1.5,   -1.8,   -1.4,   -1.4,   -1.3,   -1.3,   -1.2,   -1.1,   -1.1,   -1.0,   -1.0,   -1.0,   -1.2,   -1.2,   -1.2,   -1.1,   -1.1,   -1.0,   -1.0,   -0.9,   -0.9,   -0.7,   -0.7,   -0.7,   -0.5,   -0.6,   -0.4,   -0.6,   -0.7
2014/09/19 13:20,    0.1,   -0.3,   -0.1,   -0.0,   -0.1,   -0.1,   -0.2,   -0.2,    0.1,    0.1,    0.1,    0.1,   -0.0,    0.5,  999.0,    0.0,   -0.2,    0.1,  999.0,  999.0,   -0.0,    0.0,  999.0,    0.1,    0.0,    0.1,    0.0,    0.0,    0.0,  999.0,    0.0,  999.0,  999.0,  999.0,  999.0,  999.0,  999.0,  999.0,  999.0,   -0.4,   -0.3,   -0.2,   -0.2,    0.1,    0.4,   -0.0,   -0.1,  999.0,  999.0,   -1.1,   -1.6,   -1.7,   -1.5,   -1.4,   -1.4,   -1.2,   -1.2,   -1.3,   -1.3,   -1.2,   -1.1,   -1.1,   -1.1,   -1.0,   -1.1,   -1.1,   -1.1,   -1.1,   -1.0,   -1.0,   -1.0,   -0.8,   -1.0,   -0.7,   -0.8,   -0.8,  999.0,  999.0,  999.0,  999.0
2014/09/19 13:30,  999.0,   -0.2,   -0.3,   -0.3,   -0.3,   -0.3,   -0.4,   -0.7,   -0.4,   -0.4,   -0.2,   -0.2,   -0.1,  999.0,    0.2,   -0.2,   -0.0,   -0.1,    0.0,   -0.0,   -0.0,    0.0,    0.1,    0.0,   -0.0,   -0.0,   -0.0,  999.0,   -0.1,    0.1,    0.0,  999.0,  999.0,  999.0,  999.0,  999.0,  999.0,  999.0,   -0.0,    0.1,    0.3,    0.4,    0.9,    0.9,  999.0,  999.0,  999.0,  999.0,  999.0,  999.0,   -0.9,   -1.3,   -1.5,   -1.3,   -1.1,   -1.0,   -1.1,   -1.2,   -1.1,   -1.1,   -1.1,   -1.1,   -1.1,   -1.1,   -1.1,   -1.1,   -1.0,   -1.0,   -1.0,   -1.0,   -0.9,   -1.0,   -1.0,   -0.9,   -0.9,   -1.1,   -1.1,   -0.8,   -0.7,  999.0
2014/09/19 13:40,   -0.1,   -0.2,   -0.2,   -0.1,    0.0,   -0.0,   -0.0,   -0.1,    0.0,   -0.1,   -0.1,   -0.0,    0.3,    0.3,    0.0,    0.4,    0.4,    0.1,    0.1,    0.1,   -0.0,   -0.0,   -0.1,  999.0,  999.0,  999.0,   -0.0,    0.1,  999.0,   -0.0,    0.0,  999.0,  999.0,  999.0,  999.0,  999.0,  999.0,    0.1,    0.2,    0.5,    0.3,    0.5,    0.5,    0.2,  999.0,  999.0,  999.0,   -1.7,   -1.6,   -1.6,   -1.4,   -1.4,   -1.3,   -1.3,   -1.2,   -1.3,   -1.3,   -1.2,   -1.2,   -1.1,   -1.1,   -1.1,   -1.1,   -1.1,   -1.0,   -0.9,   -1.0,   -0.9,   -0.9,   -1.0,   -0.9,   -0.8,   -0.8,   -0.9,   -0.8,   -0.8,   -0.8,   -0.6,   -0.7,   -0.7
2014/09/19 13:50,  999.0,   -0.3,   -0.3,   -0.3,   -0.1,   -0.0,   -0.1,   -0.2,   -0.2,   -0.3,   -0.2,   -0.3,   -0.0,   -0.1,   -0.4,    0.6,    0.1,   -0.2,   -0.1,    0.1,   -0.0,    0.1,  999.0,  999.0,  999.0,  999.0,  999.0,  999.0,  999.0,  999.0,  999.0,  999.0,  999.0,  999.0,  999.0,  999.0,    0.5,    0.5,    0.7,    0.4,    0.2,  999.0,  999.0,  999.0,  999.0,  999.0,   -1.8,   -1.7,   -1.5,   -1.3,   -1.2,   -1.1,   -1.1,   -1.1,   -1.0,   -1.0,   -1.0,   -0.9,   -1.0,   -0.9,   -0.9,   -0.9,   -0.9,   -1.0,   -0.9,   -0.9,   -0.9,   -0.9,   -0.9,   -0.8,   -0.8,   -0.8,   -0.7,   -0.7,   -0.8,   -0.8,   -0.8,   -0.9,   -0.8,   -0.7
2014/09/19 14:00,   -0.1,   -0.4,   -0.3,   -0.2,   -0.3,   -0.4,   -0.4,   -0.4,   -0.4,   -0.4,   -0.4,   -0.4,   -0.5,   -0.4,   -0.0,   -0.2,   -0.5,  999.0,   -0.2,  999.0,   -0.0,   -0.0,  999.0,  999.0,  999.0,  999.0,  999.0,  999.0,  999.0,  999.0,  999.0,  999.0,  999.0,  999.0,  999.0,    1.0,    0.2,    0.1,    0.1,    0.4,    0.8,    0.7,    0.8,    0.2,   -0.0,   -0.3,  999.0,   -1.0,   -1.3,   -1.3,   -1.3,   -1.3,   -1.3,   -1.4,   -1.3,   -1.3,   -1.3,   -1.3,   -1.2,   -1.2,   -1.2,   -1.2,   -1.2,   -1.2,   -1.2,   -1.2,   -1.1,   -1.1,   -1.1,   -1.2,   -1.0,   -1.1,   -1.0,   -1.0,   -0.9,   -0.9,   -0.8,   -0.9,   -0.9,   -0.8
2014/09/19 14:10,    0.3,   -0.1,    0.0,   -0.1,   -0.1,   -0.0,   -0.0,   -0.0,   -0.1,   -0.1,   -0.1,   -0.1,    0.0,  999.0,    0.1,  999.0,   -0.1,   -0.1,    0.2,  999.0,    0.0,    0.0,    0.1,  999.0,  999.0,  999.0,  999.0,  999.0,  999.0,  999.0,  999.0,  999.0,  999.0,  999.0,  999.0,    0.4,    0.2,   -0.0,   -0.3,    0.4,  999.0,  999.0,   -0.1,  999.0,   -1.8,   -1.8,   -1.7,   -1.5,   -1.4,   -1.5,   -1.4,   -1.4,   -1.3,   -1.2,   -1.1,   -1.3,   -1.2,   -1.2,   -1.1,   -1.2,   -1.0,   -1.1,   -1.1,   -1.1,   -1.0,   -1.0,   -1.0,   -1.0,   -1.0,   -1.1,   -1.0,   -1.0,   -1.0,   -1.0,   -1.0,   -1.0,   -0.8,   -0.8,   -0.8,   -1.0
2014/09/19 14:20,  999.0,   -0.0,   -0.0,   -0.1,   -0.0,    0.1,    0.0,   -0.1,   -0.1,   -0.0,    0.0,    0.0,  999.0,  999.0,    0.4,  999.0,    0.1,    0.4,  999.0,    0.2,   -0.0,    0.0,  999.0,  999.0,  999.0,  999.0,  999.0,  999.0,  999.0,  999.0,  999.0,  999.0,  999.0,  999.0,  999.0,    0.3,    0.1,    0.0,    0.1,   -0.0,    0.2,    0.1,  999.0,  999.0,   -1.5,   -1.4,   -1.7,   -1.4,   -1.6,   -1.4,   -1.4,   -1.5,   -1.5,   -1.5,   -1.5,   -1.4,   -1.3,   -1.1,   -1.1,   -1.2,   -1.2,   -1.2,   -1.2,   -1.2,   -1.2,   -1.1,   -1.2,   -1.2,   -1.1,   -1.2,   -1.1,   -1.0,   -1.1,   -1.0,   -1.1,   -1.1,   -1.0,   -1.1,   -1.0,   -1.1
2014/09/19 14:30,    0.1,    0.1,    0.2,    0.2,    0.2,    0.1,   -0.0,   -0.1,   -0.1,   -0.2,    0.0,   -0.2,  999.0,   -0.0,    0.1,   -0.2,   -0.2,   -0.3,  999.0,   -0.3,  999.0,  999.0,  999.0,  999.0,  999.0,  999.0,  999.0,  999.0,  999.0,  999.0,  999.0,  999.0,  999.0,  999.0,   -0.6,   -0.7,   -0.3,   -0.4,   -0.2,  999.0,  999.0,  999.0,  999.0,   -1.4,   -1.7,   -1.8,   -1.7,   -1.7,   -1.8,   -1.6,   -1.4,   -1.3,   -1.4,   -1.5,   -1.5,   -1.4,   -1.3,   -1.3,   -1.3,   -1.4,   -1.3,   -1.2,   -1.3,   -1.2,   -1.3,   -1.3,   -1.2,   -1.2,   -1.1,   -1.2,   -1.2,   -1.2,   -1.1,   -1.2,   -1.0,   -1.2,   -1.0,   -1.0,   -0.8,   -1.0
2014/09/19 14:40,  999.0,   -0.0,   -0.2,   -0.1,   -0.2,   -0.3,   -0.2,   -0.1,   -0.2,   -0.1,   -0.1,   -0.1,   -0.1,   -0.1,  999.0,    0.5,   -0.1,    0.2,   -0.1,  999.0,  999.0,   -0.0,  999.0,  999.0,  999.0,  999.0,  999.0,  999.0,  999.0,  999.0,  999.0,  999.0,  999.0,  999.0,  999.0,  999.0,  999.0,  999.0,  999.0,  999.0,  999.0,  999.0,  999.0,  999.0,  999.0,   -1.5,   -1.7,   -2.0,   -1.7,   -1.7,   -1.5,   -0.9,   -1.3,   -1.3,   -1.2,   -1.1,   -1.1,   -1.0,   -0.8,   -0.7,   -0.8,   -0.8,   -0.8,   -0.9,   -0.9,   -1.0,   -0.9,   -0.9,   -1.0,   -1.0,   -1.0,   -0.8,   -0.9,   -1.0,   -0.9,   -0.8,   -1.0,   -1.0,   -1.0,   -1.1
2014/09/19 14:50,  999.0,   -0.0,    0.1,    0.0,    0.1,    0.1,    0.0,   -0.0,    0.0,   -0.1,   -0.1,   -0.1,    0.0,   -0.1,   -0.2,   -0.5,   -0.2,   -0.1,    0.0,  999.0,  999.0,  999.0,  999.0,  999.0,  999.0,  999.0,  999.0,  999.0,  999.0,  999.0,  999.0,  999.0,  999.0,  999.0,  999.0,  999.0,  999.0,    0.5,    0.4,  999.0,  999.0,  999.0,  999.0,  999.0,  999.0,   -1.1,   -1.3,   -1.9,   -1.4,   -1.6,   -1.1,   -0.9,   -1.3,   -1.0,   -0.6,   -0.7,   -0.8,   -0.7,   -0.7,   -0.4,   -0.9,   -0.6,   -0.8,   -0.8,   -1.1,   -0.9,   -1.1,   -1.1,   -1.1,   -1.1,   -1.2,   -1.0,   -1.2,   -1.1,   -1.1,   -1.2,   -1.0,   -1.1,   -1.0,   -1.1
2014/09/19 15:00,    0.4,   -0.0,    0.0,    0.0,    0.0,    0.1,    0.0,   -0.0,   -0.1,   -0.1,   -0.1,   -0.2,   -0.2,  999.0,   -0.2,   -0.1,   -0.0,    0.4,  999.0,  999.0,  999.0,    0.0,  999.0,  999.0,  999.0,  999.0,  999.0,  999.0,  999.0,  999.0,  999.0,  999.0,  999.0,  999.0,  999.0,  999.0,   -0.1,  999.0,    0.2,   -0.3,   -0.6,   -0.3,   -0.4,  999.0,  999.0,   -1.7,   -0.8,   -1.3,   -1.5,   -1.5,   -1.4,   -1.2,   -1.1,   -1.0,   -1.1,   -0.7,   -1.1,   -0.7,   -0.7,   -0.5,   -0.6,   -0.7,   -0.6,   -0.7,   -0.8,   -0.8,   -0.8,   -0.8,   -0.9,   -1.0,   -1.1,   -1.0,   -0.9,   -1.1,   -1.1,   -1.2,   -1.1,   -0.8,  999.0,  999.0
2014/09/19 15:10,    0.6,    0.3,    0.3,    0.1,    0.1,    0.1,    0.1,    0.0,   -0.0,   -0.1,   -0.1,   -0.1,  999.0,    0.0,  999.0,   -0.0,  999.0,   -0.1,  999.0,  999.0,  999.0,   -0.0,  999.0,  999.0,  999.0,  999.0,  999.0,  999.0,  999.0,  999.0,  999.0,  999.0,  999.0,  999.0,  999.0,  999.0,  999.0,    0.0,    0.3,    0.8,  999.0,  999.0,  999.0,  999.0,   -1.4,   -1.5,   -1.5,   -1.4,   -1.3,   -1.3,   -1.3,   -1.3,   -1.2,   -1.2,   -1.1,   -1.0,   -1.0,   -1.0,   -1.0,   -0.9,   -0.9,   -0.9,   -0.9,   -1.0,   -1.0,   -0.9,   -1.0,   -1.0,   -1.0,   -1.0,   -1.0,   -1.1,   -0.9,   -1.0,   -1.1,   -0.8,   -1.2,   -1.1,   -1.1,   -0.9
2014/09/19 15:20,  999.0,    0.2,    0.1,    0.2,    0.0,    0.1,    0.0,    0.1,   -0.0,   -0.0,    0.2,    0.1,    0.1,  999.0,   -0.3,   -0.2,   -0.0,  999.0,  999.0,  999.0,  999.0,  999.0,  999.0,  999.0,  999.0,  999.0,  999.0,  999.0,  999.0,  999.0,  999.0,  999.0,  999.0,  999.0,  999.0,  999.0,  999.0,    0.2,    0.2,   -0.0,   -0.8,  999.0,  999.0,   -1.1,   -1.3,   -1.6,   -1.6,   -1.9,   -1.6,   -1.4,   -1.3,   -1.2,   -1.3,   -1.3,   -1.2,   -1.2,   -1.2,   -1.2,   -1.1,   -1.1,   -1.2,   -1.1,   -1.2,   -1.2,   -1.2,   -1.2,   -1.1,   -1.1,   -1.1,   -1.1,   -1.1,   -1.0,   -1.1,   -1.1,   -1.1,   -1.1,   -1.0,   -1.0,   -0.9,   -0.9
2014/09/19 15:30,    0.4,    0.2,    0.2,    0.1,   -0.0,   -0.0,   -0.1,   -0.2,   -0.2,   -0.2,   -0.1,   -0.2,  999.0,  999.0,  999.0,    0.1,    0.1,    0.1,  999.0,  999.0,  999.0,  999.0,  999.0,  999.0,  999.0,  999.0,  999.0,  999.0,  999.0,  999.0,  999.0,  999.0,  999.0,  999.0,  999.0,   -0.4,   -0.2,    0.2,    0.2,   -0.2,   -0.0,   -1.2,   -2.2,   -2.4,   -2.1,   -2.4,   -2.0,   -1.7,   -1.4,   -1.4,   -1.2,   -1.3,   -1.2,   -1.1,   -1.1,   -1.1,   -1.1,   -1.0,   -1.0,   -1.1,   -1.1,   -1.1,   -1.1,   -1.1,   -1.2,   -1.1,   -1.2,   -1.2,   -1.2,   -1.0,   -1.1,   -1.1,   -1.0,   -1.0,   -1.0,   -1.0,   -0.8,   -0.8,   -0.9,   -0.7
2014/09/19 15:40,    1.0,    0.1,    0.2,    0.3,    0.2,    0.2,    0.1,    0.1,    0.1,    0.1,    0.2,    0.0,  999.0,   -0.2,    0.2,    0.2,    0.1,  999.0,  999.0,   -0.3,  999.0,  999.0,  999.0,    0.3,  999.0,   -0.0,  999.0,  999.0,  999.0,  999.0,  999.0,  999.0,   -0.4,    0.5,    0.1,   -0.2,    0.7,    0.7,   -0.6,  999.0,   -1.0,   -1.7,   -1.8,   -1.7,   -1.6,   -1.6,   -1.7,   -1.4,   -1.3,   -1.1,   -1.0,   -1.0,   -0.9,   -0.9,   -0.8,   -1.0,   -1.0,   -1.0,   -0.9,   -0.9,   -0.9,   -0.8,   -1.0,   -1.0,   -1.0,   -1.0,   -0.9,   -1.0,   -1.0,   -1.0,   -1.0,   -1.0,   -1.0,   -1.0,   -0.9,   -0.9,   -0.9,   -0.9,   -1.0,   -0.8
2014/09/19 15:50,  999.0,   -0.0,   -0.1,   -0.0,    0.1,    0.1,    0.1,    0.0,   -0.1,   -0.3,   -0.3,   -0.4,  999.0,   -0.5,   -0.4,   -0.3,   -0.3,  999.0,  999.0,  999.0,  999.0,    0.0,  999.0,  999.0,  999.0,  999.0,  999.0,  999.0,  999.0,  999.0,  999.0,  999.0,   -0.0,   -0.1,   -0.2,   -0.2,   -0.3,   -0.3,  999.0,  999.0,  999.0,  999.0,  999.0,   -1.5,   -1.5,   -1.7,   -1.6,   -1.7,   -1.3,   -1.3,   -1.3,   -1.3,   -1.1,   -1.1,   -1.1,   -1.0,   -1.0,   -0.9,   -1.0,   -1.0,   -0.9,   -1.2,   -1.1,   -1.1,   -1.0,   -1.1,   -1.0,   -1.1,   -1.0,   -1.0,   -1.2,   -1.1,   -1.0,   -1.1,   -1.1,   -1.1,   -1.1,   -0.9,   -0.8,   -1.0
2014/09/19 16:00,  999.0,    0.1,    0.1,    0.1,    0.1,    0.1,    0.1,    0.2,    0.1,    0.1,    0.2,    0.5,  999.0,  999.0,    0.5,    0.2,  999.0,  999.0,  999.0,  999.0,  999.0,   -0.0,  999.0,  999.0,  999.0,  999.0,  999.0,  999.0,  999.0,  999.0,  999.0,  999.0,  999.0,  999.0,  999.0,  999.0,   -0.4,  999.0,  999.0,  999.0,  999.0,  999.0,  999.0,  999.0,   -1.8,   -1.4,   -1.7,   -1.5,   -1.3,   -1.2,   -1.0,   -1.0,   -1.1,   -1.2,   -1.1,   -1.0,   -1.0,   -0.9,   -1.0,   -0.8,   -0.8,   -0.8,   -0.8,   -0.8,   -0.9,   -0.8,   -0.9,   -0.9,   -1.0,   -1.0,   -1.0,   -1.0,   -1.1,   -1.0,   -1.0,   -1.0,   -0.9,   -0.8,   -1.0,   -1.0
2014/09/19 16:10,  999.0,   -0.0,   -0.1,   -0.1,   -0.1,   -0.1,   -0.1,   -0.1,   -0.2,   -0.0,   -0.0,    0.1,  999.0,    0.3,  999.0,  999.0,  999.0,  999.0,  999.0,  999.0,  999.0,  999.0,  999.0,  999.0,  999.0,  999.0,  999.0,  999.0,  999.0,  999.0,  999.0,  999.0,  999.0,   -0.1,   -0.3,   -0.4,   -0.3,    0.3,  999.0,  999.0,  999.0,  999.0,  999.0,   -1.8,   -1.6,   -1.8,   -1.7,   -1.4,   -1.3,   -1.3,   -1.3,   -1.3,   -1.3,   -1.3,   -1.2,   -1.2,   -1.2,   -1.1,   -1.1,   -1.0,   -1.0,   -1.0,   -1.0,   -0.9,   -0.9,   -1.0,   -0.9,   -0.9,   -1.0,   -0.9,   -1.0,   -1.0,   -0.9,   -1.0,   -0.9,   -0.8,   -0.9,   -0.8,   -0.7,   -0.8
2014/09/19 16:20,  999.0,    0.4,   -0.1,   -0.0,   -0.0,   -0.1,   -0.1,   -0.1,    0.0,   -0.0,   -0.2,    0.1,   -0.0,  999.0,    0.1,    0.1,  999.0,  999.0,  999.0,  999.0,  999.0,  999.0,  999.0,  999.0,  999.0,  999.0,  999.0,  999.0,  999.0,  999.0,  999.0,  999.0,  999.0,  999.0,  999.0,  999.0,  999.0,  999.0,  999.0,  999.0,  999.0,  999.0,   -2.0,   -1.4,   -2.0,   -2.0,   -1.6,   -1.3,   -1.2,   -0.9,   -1.1,   -1.3,   -1.1,   -1.2,   -1.1,   -1.1,   -1.0,   -1.0,   -1.0,   -0.8,   -0.8,   -0.8,   -0.8,   -0.8,   -0.9,   -0.9,   -0.9,   -0.9,   -1.0,   -1.0,   -1.0,   -1.0,   -0.9,   -0.8,   -0.9,   -0.8,   -0.8,   -0.8,   -0.9,  999.0
2014/09/19 16:30,    0.3,   -0.0,   -0.1,   -0.1,   -0.1,   -0.1,   -0.1,   -0.1,   -0.0,    0.1,    0.2,    0.2,    0.2,    0.2,    0.1,  999.0,  999.0,  999.0,  999.0,  999.0,   -0.0,  999.0,  999.0,  999.0,  999.0,  999.0,  999.0,  999.0,  999.0,  999.0,  999.0,  999.0,  999.0,    0.7,  999.0,    0.5,    0.6,    0.9,    1.2,  999.0,  999.0,  999.0,  999.0,   -1.1,  999.0,   -1.2,   -2.0,   -1.6,   -1.5,   -1.4,   -1.4,   -1.5,   -1.5,   -1.5,   -1.5,   -1.4,   -1.4,   -1.3,   -1.3,   -1.2,   -1.2,   -1.1,   -1.2,   -1.2,   -1.3,   -1.2,   -1.2,   -1.3,   -1.2,   -1.2,   -1.2,   -1.1,   -1.0,   -1.1,   -1.2,   -1.2,   -1.1,   -1.0,   -1.2,   -1.1
2014/09/19 16:40,    0.6,    0.0,   -0.1,   -0.2,   -0.2,   -0.3,   -0.4,   -0.4,   -0.4,   -0.4,   -0.3,   -0.0,    0.0,    0.0,    0.0,    0.2,    0.2,  999.0,  999.0,  999.0,  999.0,  999.0,  999.0,  999.0,  999.0,  999.0,  999.0,  999.0,  999.0,  999.0,  999.0,    0.0,    0.3,    0.3,    0.4,    0.8,    0.6,   -0.1,   -0.9,   -1.9,   -2.0,   -1.5,   -1.6,   -1.6,   -1.5,   -1.4,   -1.5,   -1.2,   -1.0,   -1.0,   -1.1,   -1.1,   -1.1,   -1.1,   -1.0,   -1.0,   -1.0,   -1.0,   -0.9,   -1.0,   -0.9,   -0.9,   -0.9,   -1.0,   -0.9,   -1.0,   -1.0,   -1.2,   -1.1,   -1.2,   -1.1,   -1.1,   -1.1,   -1.2,   -1.1,   -1.1,   -1.1,   -0.9,   -0.9,   -0.9
2014/09/19 16:50,  999.0,    0.0,   -0.1,   -0.2,   -0.2,   -0.3,   -0.3,   -0.3,   -0.2,   -0.5,   -0.4,   -0.5,   -0.3,    0.3,    0.4,    0.2,  999.0,    0.3,  999.0,  999.0,   -0.0,   -0.0,  999.0,  999.0,  999.0,  999.0,  999.0,  999.0,  999.0,  999.0,  999.0,  999.0,    0.1,   -0.4,  999.0,  999.0,  999.0,  999.0,   -0.5,   -1.5,   -2.0,   -2.4,   -2.4,   -2.1,   -2.0,   -1.8,   -1.7,   -1.7,   -1.8,   -1.7,   -1.3,   -1.4,   -1.2,   -1.2,   -1.1,   -1.0,   -1.0,   -1.0,   -1.0,   -1.0,   -1.0,   -1.0,   -0.9,   -0.9,   -1.0,   -1.1,   -1.0,   -1.2,   -1.1,   -1.1,   -0.9,   -1.0,   -1.0,   -0.8,   -0.8,   -0.8,   -0.9,   -0.9,   -1.0,   -0.8
2014/09/19 17:00,    0.4,    0.3,    0.2,    0.3,  999.0,  999.0,  999.0,   -0.0,   -0.2,   -0.3,   -0.5,   -0.4,  999.0,   -0.1,  999.0,  999.0,   -0.4,  999.0,  999.0,  999.0,  999.0,  999.0,  999.0,  999.0,  999.0,   -0.4,  999.0,  999.0,  999.0,  999.0,  999.0,    0.7,    0.3,  999.0,    0.6,  999.0,  999.0,  999.0,  999.0,  999.0,   -0.4,  999.0,   -1.3,  999.0,   -1.3,   -1.0,   -1.2,   -1.3,   -1.3,   -1.3,   -1.3,   -1.2,   -1.2,   -1.2,   -1.1,   -1.1,   -1.1,   -1.0,   -1.1,   -1.1,   -1.0,   -1.0,   -1.0,   -1.0,   -1.0,   -1.1,   -1.1,   -1.0,   -1.1,   -1.1,   -1.0,   -1.1,   -1.0,   -1.0,   -0.9,   -0.9,   -0.9,   -1.0,   -1.0,   -0.9
2014/09/19 17:10,  999.0,    0.2,    0.2,    0.2,    0.2,    0.2,  999.0,    0.4,    0.3,    0.2,    0.2,    0.1,    0.0,   -0.1,    0.1,    0.1,    0.1,  999.0,  999.0,  999.0,  999.0,  999.0,    0.1,  999.0,  999.0,  999.0,  999.0,  999.0,  999.0,  999.0,  999.0,  999.0,   -0.4,   -0.0,    0.9,    1.1,  999.0,  999.0,  999.0,  999.0,  999.0,   -1.1,   -1.7,   -1.6,   -1.5,   -1.4,   -1.5,   -1.4,   -1.5,   -1.6,   -1.5,   -1.4,   -1.4,   -1.3,   -1.3,   -1.3,   -1.2,   -1.2,   -1.2,   -1.2,   -1.2,   -1.1,   -1.1,   -1.2,   -1.1,   -1.1,   -1.2,   -1.1,   -1.1,   -1.1,   -1.1,   -1.2,   -1.0,   -1.1,   -1.0,   -1.0,   -0.9,   -0.8,   -1.0,   -1.0
2014/09/19 17:20,  999.0,    0.2,    0.1,    0.2,    0.3,  999.0,   -0.1,    0.1,    0.2,    0.1,    0.1,    0.2,   -0.1,    0.1,   -0.3,    0.1,  999.0,  999.0,  999.0,  999.0,  999.0,    0.1,  999.0,  999.0,  999.0,  999.0,  999.0,  999.0,  999.0,  999.0,   -0.3,   -0.2,   -0.0,    0.2,    0.2,   -0.8,  999.0,    0.3,   -1.1,   -0.5,   -2.0,   -1.7,   -1.3,   -1.6,   -1.8,   -1.9,   -1.7,   -1.4,   -1.3,   -1.2,   -1.2,   -1.1,   -1.0,   -1.1,   -1.0,   -1.0,   -1.0,   -0.9,   -1.0,   -0.9,   -0.9,   -0.9,   -0.9,   -0.9,   -0.9,   -0.9,   -1.0,   -1.1,   -1.1,   -1.0,   -1.0,   -1.0,   -0.9,   -0.9,   -1.0,   -0.9,   -0.8,   -0.9,   -0.8,   -0.9
2014/09/19 17:30,  999.0,    0.1,    0.0,    0.1,    0.3,   -0.1,   -0.1,   -0.2,   -0.3,   -0.2,   -0.1,    0.3,    0.2,    0.4,    0.2,  999.0,    0.3,  999.0,  999.0,  999.0,  999.0,  999.0,  999.0,  999.0,  999.0,  999.0,  999.0,  999.0,  999.0,   -0.3,   -0.2,   -0.3,   -0.2,   -0.1,    0.2,    0.2,   -1.0,  999.0,   -1.3,   -1.4,   -1.5,   -1.9,   -2.0,   -2.0,   -2.0,   -1.9,   -1.9,   -1.8,   -1.8,   -1.8,   -1.8,   -1.7,   -1.7,   -1.5,   -1.4,   -1.3,   -1.2,   -1.1,   -1.1,   -1.0,   -0.9,   -0.9,   -0.8,   -0.9,   -0.9,   -0.9,   -1.0,   -1.0,   -1.0,   -1.0,   -1.1,   -1.0,   -1.0,   -0.9,   -0.9,   -0.9,   -0.9,   -0.8,   -0.7,   -0.9
2014/09/19 17:40,  999.0,    0.1,    0.0,    0.0,    0.0,  999.0,   -0.1,    0.2,    0.0,   -0.1,    0.1,    0.0,   -0.2,   -0.2,    0.2,    0.1,   -0.1,  999.0,  999.0,  999.0,  999.0,  999.0,    0.4,    0.1,  999.0,  999.0,  999.0,  999.0,   -0.8,   -0.2,    0.1,    0.1,   -0.2,   -0.0,    0.2,  999.0,   -0.2,   -1.8,   -1.8,   -2.6,   -2.3,   -2.0,   -1.8,   -1.6,   -1.6,   -1.5,   -1.5,   -1.4,   -1.4,   -1.3,   -1.4,   -1.3,   -1.3,   -1.2,   -1.1,   -1.0,   -1.0,   -1.0,   -0.9,   -0.8,   -0.9,   -0.9,   -0.9,   -0.9,   -1.0,   -1.0,   -1.0,   -1.0,   -1.1,   -1.1,   -1.0,   -1.1,   -0.8,   -0.9,   -0.9,   -0.9,   -0.8,   -0.8,   -0.9,   -0.9
2014/09/19 17:50,    0.3,    0.2,    0.2,    0.2,    0.1,    0.1,    0.1,    0.1,    0.1,    0.1,    0.2,    0.2,    0.2,    0.0,    0.1,  999.0,  999.0,  999.0,  999.0,  999.0,  999.0,   -0.1,  999.0,  999.0,    0.0,  999.0,  999.0,  999.0,    0.6,   -0.2,    0.2,    0.4,    0.4,    0.3,    0.6,    0.4,  999.0,   -1.3,   -1.5,   -1.4,   -1.7,   -1.3,   -1.4,   -1.3,   -1.4,   -1.4,   -1.5,   -1.5,   -1.5,   -1.5,   -1.5,   -1.4,   -1.4,   -1.3,   -1.2,   -1.2,   -1.2,   -1.2,   -1.1,   -1.1,   -1.0,   -1.0,   -1.0,   -1.0,   -1.0,   -1.1,   -1.2,   -1.2,   -1.2,   -1.2,   -1.1,   -1.2,   -1.2,   -1.1,   -1.1,   -1.0,   -1.1,   -0.9,   -1.0,   -0.8
2014/09/19 18:00,  999.0,    0.1,    0.1,    0.0,    0.0,  999.0,   -0.1,   -0.1,   -0.0,   -0.2,   -0.1,   -0.0,   -0.0,   -0.1,    0.3,    0.0,    0.4,  999.0,  999.0,  999.0,    0.3,  999.0,  999.0,    0.5,    0.4,  999.0,  999.0,  999.0,  999.0,  999.0,    0.6,    0.8,    1.0,    1.3,    0.4,  999.0,   -0.6,  999.0,  999.0,   -1.2,   -1.4,   -1.3,   -1.3,   -1.4,   -1.5,   -1.6,   -1.5,   -1.6,   -1.5,   -1.5,   -1.5,   -1.5,   -1.3,   -1.3,   -1.2,   -1.1,   -1.1,   -1.1,   -1.1,   -1.0,   -1.0,   -1.0,   -1.0,   -0.9,   -0.9,   -1.0,   -1.0,   -1.0,   -1.0,   -0.9,   -0.9,   -1.0,   -1.0,   -0.8,   -1.0,   -0.9,   -0.8,   -0.8,   -0.7,   -0.8
2014/09/19 18:10,  999.0,    0.3,    0.3,    0.4,    0.2,    0.1,    0.2,    0.1,    0.0,    0.1,    0.0,    0.2,    0.1,  999.0,    0.2,    0.3,  999.0,  999.0,  999.0,  999.0,  999.0,  999.0,  999.0,    0.0,  999.0,  999.0,  999.0,  999.0,  999.0,   -0.2,   -0.2,   -0.0,    0.3,    0.3,  999.0,  999.0,  999.0,  999.0,   -1.7,   -2.1,   -1.9,   -2.0,   -1.8,   -1.5,   -1.5,   -1.5,   -1.5,   -1.5,   -1.5,   -1.5,   -1.4,   -1.4,   -1.3,   -1.3,   -1.2,   -1.2,   -1.2,   -1.1,   -1.0,   -1.1,   -1.0,   -1.0,   -0.9,   -1.0,   -1.0,   -1.0,   -1.0,   -1.1,   -1.0,   -1.0,   -1.0,   -1.1,   -1.0,   -1.0,   -1.0,   -1.0,   -0.9,   -1.1,   -1.0,   -0.9
2014/09/19 18:20,  999.0,    0.4,    0.6,    0.2,    0.2,    0.1,    0.1,   -0.1,   -0.0,    0.0,    0.1,    0.2,    0.2,    0.1,    0.1,    0.1,  999.0,  999.0,  999.0,  999.0,    0.2,   -0.0,    0.2,    0.4,  999.0,  999.0,  999.0,   -0.2,    0.2,   -0.1,   -0.1,    0.2,    0.3,    0.4,  999.0,  999.0,  999.0,   -1.0,   -1.4,   -1.8,   -1.8,   -1.4,   -1.4,   -1.4,   -1.4,   -1.3,   -1.3,   -1.3,   -1.3,   -1.3,   -1.2,   -1.2,   -1.2,   -1.2,   -1.2,   -1.2,   -1.2,   -1.2,   -1.2,   -1.1,   -1.1,   -1.1,   -1.1,   -1.1,   -1.1,   -1.1,   -1.2,   -1.1,   -1.1,   -1.1,   -1.0,   -1.1,   -1.1,   -1.1,   -1.0,   -1.1,   -0.9,   -0.9,   -1.0,   -0.9
2014/09/19 18:30,  999.0,    0.4,    0.8,    0.4,  999.0,  999.0,    0.1,    0.1,   -0.0,    0.0,   -0.1,    0.4,  999.0,    0.5,    0.1,   -0.0,    0.1,  999.0,  999.0,  999.0,  999.0,   -0.1,   -0.0,  999.0,  999.0,  999.0,  999.0,   -0.2,    0.0,    0.0,    0.1,    0.4,    0.6,    0.6,  999.0,   -2.0,  999.0,   -1.7,   -1.6,   -1.1,   -1.6,   -1.6,   -1.4,   -1.4,   -1.5,   -1.5,   -1.5,   -1.4,   -1.4,   -1.3,   -1.3,   -1.2,   -1.1,   -1.2,   -1.1,   -1.1,   -1.1,   -1.1,   -1.0,   -1.0,   -1.0,   -1.0,   -1.0,   -1.1,   -1.1,   -1.2,   -1.1,   -1.1,   -1.1,   -1.2,   -1.2,   -1.2,   -1.1,   -1.2,   -1.2,   -1.1,   -1.0,   -1.0,   -0.9,   -1.0
2014/09/19 18:40,    0.7,    0.9,  999.0,    1.4,    1.5,    1.5,    1.2,  999.0,    0.9,    0.9,    1.0,    1.1,    1.1,    0.9,    0.7,    0.1,    0.1,  999.0,  999.0,  999.0,    0.0,   -0.2,  999.0,  999.0,    0.2,    0.2,  999.0,   -0.1,    0.1,   -0.2,    0.0,   -0.3,    0.5,  999.0,  999.0,  999.0,  999.0,   -1.3,   -1.6,   -1.7,   -1.6,   -1.5,   -1.6,   -1.4,   -1.5,   -1.5,   -1.5,   -1.4,   -1.3,   -1.3,   -1.2,   -1.2,   -1.2,   -1.1,   -1.0,   -1.1,   -1.0,   -1.1,   -1.0,   -1.0,   -1.0,   -1.0,   -1.0,   -1.1,   -1.1,   -1.1,   -1.1,   -1.1,   -1.1,   -1.0,   -1.1,   -1.0,   -1.0,   -1.0,   -1.0,   -0.9,   -0.9,   -0.9,   -1.1,   -0.9
2014/09/19 18:50,    1.8,    1.9,    1.6,  999.0,  999.0,    1.1,    0.3,    0.7,    1.0,    0.9,    0.7,    0.7,    0.8,    0.8,    0.8,    0.6,    0.1,  999.0,  999.0,  999.0,  999.0,  999.0,    0.1,  999.0,   -0.0,  999.0,  999.0,   -0.3,   -0.5,   -0.5,   -0.5,   -0.2,  999.0,  999.0,  999.0,  999.0,  999.0,  999.0,   -2.3,   -2.1,   -1.9,   -1.5,   -1.4,   -1.2,   -1.5,   -1.8,   -1.8,   -1.8,   -1.8,   -1.8,   -1.7,   -1.6,   -1.6,   -1.4,   -1.4,   -1.4,   -1.3,   -1.3,   -1.3,   -1.3,   -1.1,   -1.1,   -1.1,   -1.1,   -1.2,   -1.1,   -1.1,   -1.1,   -1.1,   -1.1,   -1.2,   -1.1,   -1.1,   -1.1,   -1.1,   -1.0,   -1.1,   -1.0,   -1.0,   -1.0
2014/09/19 19:00,  999.0,  999.0,    0.6,    0.2,    0.9,    0.2,    0.5,    0.1,    0.5,    0.6,    0.8,    0.4,    0.9,    0.5,    0.4,    0.4,    0.2,    0.6,  999.0,  999.0,  999.0,  999.0,  999.0,    0.5,  999.0,    0.6,    1.0,    0.7,    0.4,    0.4,    0.3,    0.2,    0.5,   -0.0,   -0.6,    0.3,    1.0,   -0.1,   -0.8,   -0.6,   -0.9,   -1.1,   -1.3,   -1.1,   -0.9,   -0.8,   -0.7,   -0.7,   -0.6,   -0.7,   -0.8,   -0.7,   -0.9,   -0.9,   -0.9,   -1.1,   -0.9,   -0.9,   -0.9,   -0.8,   -0.8,   -0.8,   -0.8,   -0.9,   -0.9,   -1.0,   -1.1,   -1.1,   -1.1,   -1.0,   -1.0,   -1.1,   -1.0,   -0.9,   -0.9,   -0.9,   -0.8,   -0.8,   -0.8,   -0.9
2014/09/19 19:10,  999.0,    0.5,    0.4,    0.3,    0.1,    0.1,   -0.0,    0.2,    0.1,    0.7,    0.9,    0.6,    0.4,    0.6,    0.4,    0.1,   -0.0,    0.4,  999.0,  999.0,  999.0,  999.0,  999.0,  999.0,    0.3,  999.0,    0.5,    0.8,    0.2,    0.1,    0.4,    0.8,    1.0,  999.0,   -1.4,   -1.4,   -2.5,   -1.7,   -1.7,   -1.7,   -1.7,   -1.7,   -1.5,   -1.4,   -1.6,   -1.5,   -1.4,   -1.4,   -1.3,   -1.2,   -1.1,   -1.1,   -1.1,   -1.1,   -1.1,   -1.1,   -1.0,   -1.0,   -0.9,   -0.9,   -0.9,   -0.9,   -0.9,   -1.0,   -1.0,   -0.9,   -1.0,   -1.0,   -1.0,   -1.0,   -0.9,   -1.1,   -0.9,   -1.0,   -1.0,   -0.9,   -0.9,   -1.0,   -0.9,   -1.0
2014/09/19 19:20,  999.0,    0.5,    0.5,    0.4,    0.4,    0.1,    0.0,   -0.2,    0.0,    0.0,   -0.3,    0.2,    0.1,    0.1,    0.4,   -0.0,   -0.1,  999.0,   -0.3,    0.0,    0.2,  999.0,   -0.1,   -0.1,    0.2,   -0.3,   -0.1,    0.0,    0.1,   -0.2,   -0.4,    0.2,  999.0,   -1.1,  999.0,  999.0,   -2.4,   -2.5,   -2.3,   -1.8,   -1.3,   -1.4,   -1.3,   -1.3,   -1.3,   -1.3,   -1.3,   -1.2,   -1.2,   -1.2,   -1.1,   -1.1,   -1.1,   -1.0,   -1.0,   -1.0,   -1.1,   -1.0,   -1.1,   -1.0,   -1.0,   -1.0,   -1.0,   -1.0,   -1.0,   -1.0,   -1.1,   -1.1,   -1.0,   -1.1,   -1.2,   -1.1,   -1.1,   -1.1,   -1.1,   -1.0,   -1.0,   -1.0,   -0.9,   -0.9
2014/09/19 19:30,  999.0,    0.3,    0.2,    0.3,    0.0,   -0.1,   -0.1,   -0.1,   -0.3,   -0.2,   -0.1,    0.3,   -0.2,   -0.1,    0.2,    0.3,    0.4,    0.3,  999.0,  999.0,   -0.0,    0.0,   -0.0,    0.2,   -0.4,   -0.4,    0.4,    0.2,   -0.1,    0.2,    0.2,    0.3,    0.5,  999.0,  999.0,  999.0,   -2.5,   -2.3,   -2.2,   -1.8,   -1.5,   -1.4,   -1.4,   -1.4,   -1.3,   -1.3,   -1.3,   -1.2,   -1.1,   -1.1,   -1.1,   -1.0,   -1.0,   -1.1,   -1.0,   -1.0,   -1.0,   -1.0,   -1.0,   -0.9,   -0.9,   -0.9,   -0.9,   -0.9,   -1.0,   -1.0,   -1.0,   -1.0,   -1.0,   -1.1,   -1.0,   -1.1,   -1.0,   -1.0,   -1.0,   -0.9,   -0.9,   -0.9,   -0.9,   -0.9
2014/09/19 19:40,  999.0,    0.3,    0.2,    0.2,    0.2,    0.1,   -0.0,    0.1,    0.0,   -0.1,    0.4,    0.2,  999.0,  999.0,  999.0,    0.0,   -0.2,  999.0,  999.0,  999.0,    0.0,   -0.1,  999.0,  999.0,  999.0,   -0.3,    0.2,   -0.4,   -0.2,    0.1,   -0.2,   -0.4,   -0.3,   -1.0,   -1.2,   -1.4,   -1.1,   -1.0,   -1.9,   -1.8,   -1.7,   -1.5,   -1.5,   -1.4,   -1.4,   -1.4,   -1.3,   -1.1,   -1.0,   -1.0,   -1.0,   -1.0,   -1.1,   -1.3,   -1.4,   -1.2,   -1.1,   -1.1,   -1.0,   -1.0,   -1.0,   -0.9,   -0.9,   -1.0,   -1.0,   -1.0,   -1.1,   -1.1,   -1.2,   -1.1,   -1.0,   -1.0,   -1.1,   -1.0,   -1.1,   -1.1,   -1.0,   -0.9,   -1.1,   -0.8
2014/09/19 19:50,  999.0,    0.3,    0.7,    0.3,    0.3,    0.5,    0.0,   -0.0,   -0.1,   -0.1,    0.0,    0.2,   -0.1,   -0.1,  999.0,    0.4,    0.5,    0.5,  999.0,  999.0,  999.0,    0.1,  999.0,    0.5,  999.0,    0.5,  999.0,    0.3,    0.3,    0.1,   -0.7,   -1.7,   -2.3,   -2.4,   -2.5,   -2.6,   -2.3,   -1.7,   -1.4,   -1.3,   -1.3,   -1.1,   -1.0,   -0.9,   -1.0,   -1.0,   -1.0,   -1.0,   -1.0,   -0.9,   -0.9,   -1.0,   -0.9,   -1.0,   -1.0,   -1.0,   -1.0,   -1.0,   -1.0,   -0.9,   -0.8,   -0.8,   -0.9,   -0.8,   -0.9,   -0.9,   -1.1,   -1.0,   -1.0,   -1.0,   -1.1,   -1.0,   -1.1,   -1.0,   -1.1,   -0.9,   -1.0,   -0.9,   -1.0,   -1.0
2014/09/19 20:00,  999.0,  999.0,    0.7,    0.5,    0.0,    0.1,    0.1,    0.1,    0.2,    0.2,    0.1,    0.0,  999.0,    0.2,   -0.3,   -0.2,   -0.5,   -0.2,   -0.2,  999.0,   -0.1,   -0.0,   -0.2,    0.0,  999.0,  999.0,  999.0,    0.3,    0.1,   -0.1,    0.3,    0.3,  999.0,  999.0,  999.0,   -1.6,   -1.6,   -1.3,   -1.4,   -1.4,   -1.3,   -1.3,   -1.5,   -1.6,   -1.6,   -1.7,   -1.7,   -1.7,   -1.6,   -1.6,   -1.5,   -1.4,   -1.4,   -1.3,   -1.3,   -1.2,   -1.1,   -1.0,   -0.9,   -0.9,   -0.9,   -0.8,   -0.8,   -0.8,   -0.8,   -0.9,   -0.9,   -1.0,   -0.9,   -1.0,   -1.0,   -0.9,   -0.9,   -0.9,   -1.0,   -0.9,   -0.9,   -0.8,   -1.0,   -0.9
2014/09/19 20:10,  999.0,  999.0,    0.5,    0.4,   -0.1,    0.3,    0.3,    0.2,    0.2,    0.2,    0.4,    0.4,    0.2,    0.4,    0.4,    0.3,    0.1,  999.0,  999.0,  999.0,   -0.0,    0.0,    0.2,    0.5,  999.0,  999.0,   -0.2,   -0.3,   -0.1,    0.1,    0.3,    0.3,    0.3,   -0.8,   -0.7,   -0.9,   -1.7,   -1.5,   -1.4,   -1.4,   -1.2,   -1.3,   -1.4,   -1.4,   -1.3,   -1.3,   -1.3,   -1.3,   -1.3,   -1.3,   -1.3,   -1.2,   -1.2,   -1.2,   -1.2,   -1.1,   -1.1,   -1.0,   -1.0,   -0.9,   -0.9,   -0.9,   -0.9,   -1.0,   -1.0,   -1.0,   -1.1,   -1.0,   -1.0,   -1.2,   -1.1,   -1.2,   -1.1,   -1.1,   -1.2,   -1.1,   -1.1,   -1.1,   -1.1,   -1.0
2014/09/19 20:20,  999.0,    0.8,    0.6,    0.4,    0.3,    0.5,    0.4,    0.2,    0.4,    0.1,   -0.0,    0.1,    0.6,  999.0,    0.4,    0.3,   -0.0,   -0.3,    0.0,    0.4,   -0.0,   -0.0,   -0.1,   -0.3,  999.0,   -0.7,   -1.0,   -0.4,    0.1,  999.0,  999.0,  999.0,  999.0,   -3.1,   -2.8,   -2.4,   -2.0,   -1.7,   -1.4,   -1.2,   -1.2,   -1.3,   -1.5,   -1.5,   -1.5,   -1.5,   -1.5,   -1.6,   -1.5,   -1.5,   -1.4,   -1.4,   -1.4,   -1.3,   -1.3,   -1.2,   -1.2,   -1.2,   -1.1,   -1.1,   -1.1,   -1.0,   -1.0,   -1.1,   -1.2,   -1.1,   -1.3,   -1.4,   -1.2,   -1.4,   -1.2,   -1.1,   -1.1,   -1.3,   -1.1,  999.0,  999.0,  999.0,  999.0,  999.0
2014/09/19 20:30,  999.0,  999.0,    0.8,    0.6,    0.5,    0.4,   -0.1,   -0.2,   -0.1,   -0.2,   -0.4,   -0.1,    0.1,    0.1,  999.0,   -0.2,   -0.2,   -0.6,   -0.6,  999.0,    0.0,  999.0,    0.0,  999.0,    0.3,    0.4,    0.4,    0.3,    0.5,    0.5,    0.4,  999.0,   -1.6,   -2.2,   -2.6,   -3.0,   -2.8,   -2.2,   -1.7,   -1.4,   -1.4,   -1.5,   -1.6,   -1.6,   -1.6,   -1.5,   -1.5,   -1.4,   -1.4,   -1.3,   -1.3,   -1.2,   -1.2,   -1.1,   -1.1,   -1.1,   -1.2,   -1.1,   -1.0,   -0.9,   -0.9,   -0.8,   -0.7,   -0.8,   -0.8,   -0.9,   -0.9,   -1.0,   -1.0,   -1.1,   -1.1,   -1.1,   -1.0,   -0.9,   -1.0,   -1.2,   -1.0,   -1.0,  999.0,   -0.9
2014/09/19 20:40,  999.0,    0.2,    0.5,    0.3,    0.2,    0.3,    0.0,   -0.2,   -0.1,   -0.0,  999.0,  999.0,   -0.2,    0.0,    0.1,    0.0,   -0.1,   -0.9,  999.0,  999.0,    0.1,  999.0,   -0.1,  999.0,   -0.2,    0.3,    0.2,    0.9,    0.9,    1.0,    0.5,  999.0,   -0.1,   -0.8,   -0.8,   -1.1,   -1.1,   -1.2,   -1.1,   -1.2,   -1.4,   -1.5,   -1.6,   -1.7,   -1.7,   -1.6,   -1.5,   -1.5,   -1.4,   -1.4,   -1.3,   -1.3,   -1.3,   -1.3,   -1.3,   -1.2,   -1.2,   -1.1,   -1.1,   -1.0,   -1.0,   -0.9,   -0.9,   -1.0,   -1.0,   -1.1,   -1.2,   -1.1,   -1.2,   -1.2,   -1.2,   -1.1,   -1.1,   -1.1,   -1.1,   -1.0,   -1.1,   -1.1,   -1.0,   -1.0
2014/09/19 20:50,    0.9,    0.2,    0.3,    0.7,    0.4,    0.5,    0.4,    0.3,    0.0,    0.1,   -0.0,    0.3,   -0.0,    0.1,    0.0,    0.3,    0.5,  999.0,  999.0,   -0.2,   -0.3,   -0.1,   -0.0,    0.0,    0.3,    0.3,    0.4,    0.5,  999.0,   -0.2,    0.4,    0.6,  999.0,  999.0,   -0.2,   -0.7,   -0.9,   -1.0,   -1.1,   -1.2,   -1.3,   -1.4,   -1.4,   -1.5,   -1.4,   -1.5,   -1.5,   -1.5,   -1.5,   -1.4,   -1.4,   -1.4,   -1.4,   -1.4,   -1.4,   -1.4,   -1.3,   -1.2,   -1.1,   -1.1,   -1.1,   -1.2,   -1.0,   -1.0,   -1.0,   -1.0,   -1.1,   -1.2,   -1.2,   -1.2,   -1.2,   -1.2,   -1.1,   -1.1,   -1.0,   -1.1,   -1.0,   -0.9,   -1.1,   -1.0
2014/09/19 21:00,    0.9,    0.3,    0.5,    0.2,    0.0,    0.1,   -0.1,  999.0,   -0.1,  999.0,   -0.3,   -0.2,    0.4,    0.3,    0.1,    0.4,    0.3,   -0.0,    0.0,   -0.5,   -0.0,   -0.1,    0.1,    0.2,    0.0,   -0.1,   -0.4,   -0.1,   -0.1,    0.2,    0.6,    0.4,    0.3,    0.0,   -0.3,   -1.0,   -1.0,   -1.0,   -1.0,   -1.1,   -1.2,   -1.3,   -1.4,   -1.4,   -1.3,   -1.3,   -1.3,   -1.3,   -1.2,   -1.2,   -1.2,   -1.2,   -1.2,   -1.2,   -1.1,   -1.2,   -1.1,   -1.2,   -1.0,   -1.1,   -1.0,   -1.0,   -0.9,   -0.9,   -0.9,   -0.9,   -1.1,   -1.1,   -1.2,   -1.1,   -1.2,   -1.2,   -1.2,   -1.1,   -1.2,   -1.2,   -1.1,   -1.1,   -1.1,   -1.0
2014/09/19 21:10,  999.0,    0.4,  999.0,    0.3,    0.4,   -0.2,   -0.1,   -0.0,   -0.0,   -0.4,   -0.2,  999.0,    0.7,  999.0,    0.5,    0.2,  999.0,    0.0,    0.2,  999.0,  999.0,   -0.1,  999.0,    0.2,   -0.0,    0.1,   -0.1,   -0.0,    0.2,    0.2,    0.4,  999.0,   -0.2,   -0.2,   -0.7,   -0.8,   -1.0,   -1.0,   -1.1,   -1.2,   -1.3,   -1.5,   -1.7,   -1.8,   -1.7,   -1.4,   -1.3,   -1.3,   -1.3,   -1.3,   -1.2,   -1.2,   -1.2,   -1.2,   -1.2,   -1.2,   -1.2,   -1.1,   -1.1,   -1.1,   -1.1,   -1.1,   -1.1,   -1.1,   -1.3,   -1.2,   -1.3,   -1.2,   -1.3,   -1.3,   -1.3,   -1.3,   -1.3,   -1.2,   -1.2,   -1.3,   -1.2,   -1.1,   -1.1,   -1.1
2014/09/19 21:20,  999.0,    0.2,   -0.1,    0.2,   -0.1,   -0.0,   -0.1,   -0.2,   -0.1,    0.2,    0.0,  999.0,  999.0,    0.1,    0.2,    0.1,    0.3,  999.0,   -0.0,    0.0,   -0.2,    0.1,    0.1,   -0.2,   -0.0,   -0.2,   -0.1,   -0.4,   -0.2,   -0.2,   -0.1,   -0.2,   -0.6,   -1.4,   -1.1,   -1.2,   -1.3,   -1.3,   -1.4,   -1.3,   -1.4,   -1.3,   -1.3,   -1.3,   -1.3,   -1.3,   -1.3,   -1.3,   -1.3,   -1.3,   -1.2,   -1.2,   -1.2,   -1.2,   -1.1,   -1.2,   -1.1,   -1.1,   -1.0,   -1.0,   -1.0,   -1.0,   -1.1,   -1.0,   -1.1,   -1.2,   -1.2,   -1.3,   -1.4,   -1.4,   -1.4,   -1.3,   -1.3,   -1.3,   -1.3,   -1.3,   -1.2,   -1.1,   -1.2,   -1.1
2014/09/19 21:30,    0.9,  999.0,  999.0,   -0.1,    0.1,    0.3,   -0.0,   -0.2,   -0.1,  999.0,  999.0,    0.6,  999.0,    0.3,    0.2,    0.2,    0.2,    0.3,    0.2,    0.8,    0.1,    0.0,  999.0,    0.2,    0.2,    0.1,    0.1,    0.0,   -0.0,   -0.3,   -0.6,   -1.4,   -1.4,   -1.5,   -1.6,   -1.5,   -1.6,   -1.5,   -1.4,   -1.5,   -1.6,   -1.7,   -1.8,   -1.7,   -1.7,   -1.6,   -1.5,   -1.5,   -1.5,   -1.5,   -1.4,   -1.4,   -1.4,   -1.3,   -1.3,   -1.2,   -1.2,   -1.2,   -1.2,   -1.1,   -1.1,   -1.2,   -1.0,   -1.1,   -1.1,   -1.1,   -1.2,   -1.3,   -1.4,   -1.4,   -1.3,   -1.5,   -1.3,   -1.3,   -1.2,   -1.2,   -1.2,   -1.2,   -1.2,   -1.2
2014/09/19 21:40,  999.0,    0.5,  999.0,    0.3,   -0.3,   -0.2,    0.1,    0.4,    0.2,    0.4,    0.6,  999.0,  999.0,    0.5,    0.0,   -0.8,  999.0,  999.0,   -0.4,    0.3,   -0.1,   -0.1,   -0.1,    0.1,    0.4,    0.5,    0.8,    0.8,    0.9,   -0.0,    0.4,   -0.6,   -0.6,   -0.7,   -1.0,   -0.6,   -1.1,   -1.2,   -1.1,   -1.2,   -1.3,   -1.4,   -1.4,   -1.5,   -1.5,   -1.5,   -1.4,   -1.4,   -1.3,   -1.3,   -1.4,   -1.3,   -1.3,   -1.3,   -1.3,   -1.2,   -1.2,   -1.2,   -1.2,   -1.1,   -1.1,   -1.1,   -1.1,   -1.0,   -1.2,   -1.2,   -1.3,   -1.2,   -1.2,   -1.3,   -1.2,   -1.3,   -1.2,   -1.2,   -1.2,   -1.2,   -1.2,   -1.2,   -1.3,   -1.3
2014/09/19 21:50,  999.0,  999.0,  999.0,  999.0,    0.0,    0.2,    0.1,    0.0,    0.1,    0.2,  999.0,    0.5,   -0.1,    0.5,    0.1,    0.1,    0.9,    0.3,   -0.2,    0.1,   -0.2,    0.4,   -0.1,    0.2,    0.2,    0.4,    0.3,    0.1,    0.3,    0.3,   -0.4,   -0.4,   -1.0,   -0.6,   -0.6,   -0.7,   -1.0,   -1.2,   -1.1,   -1.2,   -1.4,   -1.2,   -1.4,   -1.3,   -1.3,   -1.3,   -1.3,   -1.2,   -1.3,   -1.2,   -1.3,   -1.3,   -1.3,   -1.2,   -1.2,   -1.2,   -1.1,   -1.1,   -1.1,   -1.1,   -1.0,   -1.1,   -1.1,   -1.2,   -1.3,   -1.2,   -1.3,   -1.2,   -1.2,   -1.2,   -1.3,   -1.3,   -1.3,   -1.2,   -1.2,   -1.2,   -1.1,   -1.2,   -1.1,   -1.2
2014/09/19 22:00,  999.0,    1.5,    0.5,  999.0,  999.0,    0.3,    0.2,    0.2,   -0.2,    0.0,    0.1,   -0.1,   -0.3,   -0.3,    0.3,    0.4,    0.5,    0.4,    0.3,    0.4,    0.4,    0.2,    0.2,    0.1,    0.0,   -0.2,   -0.8,   -0.8,   -1.5,   -1.7,   -2.0,   -2.3,   -2.2,   -1.6,   -1.4,   -1.7,   -1.6,   -1.7,   -1.5,   -1.5,   -1.4,   -1.4,   -1.5,   -1.5,   -1.5,   -1.5,   -1.5,   -1.4,   -1.4,   -1.3,   -1.3,   -1.3,   -1.3,   -1.2,   -1.3,   -1.2,   -1.1,   -1.1,   -1.0,   -1.0,   -0.9,   -0.9,   -1.0,   -1.0,   -1.1,   -1.1,   -1.1,   -1.2,   -1.2,   -1.3,   -1.3,   -1.3,   -1.4,   -1.3,   -1.2,   -1.2,   -1.2,   -1.1,   -1.3,   -1.1
2014/09/19 22:10,  999.0,    1.5,    1.3,    0.2,    0.5,    0.5,   -0.2,   -0.0,  999.0,    0.1,    0.0,    0.0,   -0.2,    0.1,    0.1,    0.2,    0.0,  999.0,   -0.1,  999.0,   -0.2,   -0.1,    0.2,    0.3,    0.5,    0.1,  999.0,   -1.9,   -2.2,   -2.4,   -2.8,   -2.6,   -2.1,   -2.0,   -1.8,   -1.8,   -1.7,   -1.6,   -1.6,   -1.6,   -1.6,   -1.7,   -1.7,   -1.8,   -1.7,   -1.8,   -1.7,   -1.7,   -1.7,   -1.6,   -1.5,   -1.6,   -1.4,   -1.4,   -1.3,   -1.3,   -1.2,   -1.1,   -1.1,   -1.1,   -1.0,   -1.1,   -1.1,   -1.1,   -1.2,   -1.2,   -1.1,   -1.1,   -1.2,   -1.2,   -1.2,   -1.1,   -1.1,   -1.1,   -1.0,   -1.0,   -1.0,   -1.0,   -0.9,   -0.7
2014/09/19 22:20,    0.5,    0.1,    0.4,    0.2,    0.1,    0.0,    0.2,    0.0,    0.1,  999.0,   -0.1,   -0.1,  999.0,  999.0,  999.0,  999.0,    0.1,    0.4,    0.6,    0.1,    0.2,    0.2,    0.0,    0.1,    0.2,    0.2,   -0.8,   -1.4,   -1.2,   -0.8,   -0.7,   -0.5,   -0.4,   -0.5,   -0.6,   -0.7,   -0.8,   -1.1,   -1.1,   -1.3,   -1.4,   -1.3,   -1.3,   -1.3,   -1.3,   -1.3,   -1.2,   -1.2,   -1.2,   -1.2,   -1.1,   -1.2,   -1.2,   -1.1,   -1.1,   -1.1,   -1.1,   -1.0,   -1.0,   -0.9,   -0.9,   -0.9,   -0.9,   -0.9,   -0.8,   -0.9,   -1.0,   -1.1,   -1.1,   -1.1,   -1.2,   -1.1,   -1.0,   -1.1,   -1.1,   -1.0,   -1.1,   -1.1,   -1.0,   -1.1
2014/09/19 22:30,  999.0,  999.0,  999.0,    0.2,   -0.1,   -0.1,    0.0,  999.0,   -0.0,    0.1,    0.2,  999.0,    0.0,  999.0,    0.1,  999.0,    0.5,    0.3,    0.0,    0.1,    0.3,    0.1,    0.1,    0.0,    0.1,    0.1,    0.1,   -0.1,   -1.1,   -1.0,   -0.8,   -0.7,   -0.4,   -0.5,   -0.7,   -0.8,   -1.0,   -1.0,   -1.0,   -1.0,   -1.1,   -1.0,   -1.0,   -1.1,   -1.0,   -1.0,   -1.1,   -1.1,   -1.1,   -1.2,   -1.2,   -1.2,   -1.2,   -1.1,   -1.1,   -1.1,   -1.0,   -0.9,   -0.8,   -0.7,   -0.8,   -0.7,   -0.8,   -0.8,   -0.8,   -0.9,   -0.9,   -0.9,   -0.8,   -0.8,   -0.9,   -0.8,  999.0,  999.0,  999.0,  999.0,  999.0,  999.0,  999.0,  999.0
2014/09/19 22:40,    0.5,    0.4,    0.2,    0.2,   -0.0,    0.1,    0.0,   -0.0,    0.1,    0.0,    0.2,  999.0,    0.2,    0.2,    0.4,    0.5,    0.1,    0.0,    0.1,    0.3,    0.3,    0.6,    0.6,    0.3,    0.6,    0.5,    0.1,   -1.0,   -1.1,   -1.4,   -1.4,   -1.4,   -1.2,   -1.2,   -1.2,   -1.4,   -1.5,   -1.5,   -1.6,   -1.6,   -1.6,   -1.7,   -1.7,   -1.8,   -1.7,   -1.7,   -1.6,   -1.6,   -1.5,   -1.5,   -1.4,   -1.4,   -1.3,   -1.3,   -1.2,   -1.2,   -1.1,   -1.1,   -1.0,   -0.9,   -0.8,   -0.8,   -0.9,   -0.9,   -1.0,   -1.0,   -1.0,   -1.0,   -1.0,   -0.9,   -0.9,   -0.8,   -0.7,  999.0,  999.0,  999.0,  999.0,  999.0,  999.0,  999.0
2014/09/19 22:50,    0.5,   -0.4,   -0.1,  999.0,    0.2,   -0.3,   -0.1,    0.0,    0.0,  999.0,    0.2,    0.2,    0.2,    0.4,    0.3,    0.1,    0.1,   -0.0,    0.0,    0.1,    0.3,    0.6,    0.8,    0.6,    0.6,    0.5,    0.0,   -0.6,   -0.8,   -0.8,   -0.6,   -0.9,   -0.9,   -1.0,   -1.1,   -1.1,   -1.3,   -1.2,   -1.4,   -1.5,   -1.5,   -1.7,   -1.7,   -1.8,   -1.7,   -1.8,   -1.8,   -1.7,   -1.7,   -1.6,   -1.5,   -1.4,   -1.4,   -1.2,   -1.2,   -1.1,   -1.1,   -1.1,   -1.0,   -0.9,   -0.9,   -0.8,   -0.9,   -0.9,   -0.9,   -0.9,   -0.9,   -0.9,   -1.0,   -0.7,   -0.7,   -0.6,  999.0,  999.0,  999.0,  999.0,  999.0,  999.0,  999.0,  999.0
2014/09/19 23:00,  999.0,   -0.6,    0.2,   -0.2,    0.1,   -0.0,   -0.1,   -0.1,  999.0,  999.0,    0.2,    0.1,   -0.1,   -0.3,    0.0,    0.5,   -0.1,   -0.0,   -0.4,   -0.4,   -0.2,   -0.1,   -0.0,    0.1,   -0.2,   -0.1,   -0.4,   -0.8,   -1.0,   -1.1,   -1.3,   -1.3,   -1.4,   -1.2,   -1.1,   -1.1,   -1.1,   -1.1,   -1.1,   -0.7,   -1.0,   -1.1,   -1.1,   -1.0,   -0.8,   -0.8,   -0.4,   -0.5,   -0.9,   -1.0,   -0.9,   -0.9,   -0.9,   -0.8,   -0.7,   -0.6,   -0.6,   -0.4,   -0.3,   -0.3,   -0.3,   -0.2,   -0.3,   -0.3,   -0.4,   -0.5,   -0.4,  999.0,  999.0,   -1.0,  999.0,  999.0,  999.0,  999.0,  999.0,  999.0,  999.0,  999.0,  999.0,  999.0
2014/09/19 23:10,  999.0,    0.3,   -0.3,    0.0,   -0.2,    0.1,    0.2,    0.2,    0.1,  999.0,  999.0,   -0.1,   -0.5,   -0.5,   -0.6,   -0.6,   -0.4,   -0.0,   -0.4,   -0.1,   -0.1,   -0.1,   -0.1,   -0.1,   -0.2,    0.0,   -0.5,   -0.9,   -1.1,   -1.3,   -1.4,   -1.3,   -1.8,   -1.4,   -1.6,   -1.1,   -1.0,   -1.3,   -1.6,   -1.5,   -1.5,   -1.5,   -1.4,   -1.7,   -0.8,   -0.8,   -0.8,   -0.6,   -1.0,   -1.0,   -1.0,   -1.1,   -1.2,   -1.2,   -0.8,   -0.9,   -1.1,   -0.8,   -0.8,   -0.7,   -0.8,   -0.8,   -0.9,   -0.9,   -0.9,   -0.9,   -1.1,   -0.8,   -0.8,   -1.2,  999.0,  999.0,  999.0,  999.0,  999.0,  999.0,  999.0,  999.0,  999.0,  999.0
2014/09/19 23:20,    0.2,    0.1,    0.1,   -0.0,    0.3,    0.3,    0.3,   -0.1,    0.1,   -0.1,   -0.6,  999.0,    0.1,    0.1,   -0.1,    0.3,    0.1,    0.1,   -0.2,    0.0,    0.0,    0.1,   -0.0,   -0.2,   -0.4,   -0.3,   -0.2,   -0.2,   -0.7,   -0.8,   -0.7,   -0.7,   -0.8,   -0.9,   -0.7,   -0.6,   -0.8,   -0.2,    0.1,   -0.8,   -1.3,   -1.3,   -1.2,   -1.1,   -1.3,   -1.1,   -1.0,   -1.0,   -1.2,   -1.1,   -1.1,   -1.0,   -1.3,   -1.2,   -1.1,   -1.0,   -1.1,   -1.0,   -1.0,   -1.0,   -1.0,   -1.1,   -0.9,   -1.0,   -0.9,   -1.1,   -1.2,   -1.2,   -1.2,   -1.1,   -1.2,   -1.1,   -1.2,   -1.1,   -1.1,   -1.2,   -1.0,   -1.2,   -1.1,  999.0
2014/09/19 23:30,  999.0,  999.0,    0.8,    0.4,    0.6,   -0.0,    0.1,    0.2,   -0.1,  999.0,    0.1,  999.0,  999.0,  999.0,    0.1,   -0.0,    0.0,   -0.1,   -0.1,   -0.0,   -0.1,   -0.1,   -0.1,   -0.0,    0.1,   -0.0,   -0.2,   -0.2,   -0.2,    0.2,    0.1,  999.0,   -1.5,   -1.5,   -0.5,   -0.1,   -0.3,   -0.2,   -0.2,   -0.4,   -1.0,   -1.2,   -1.1,   -1.0,   -1.1,   -1.1,   -1.3,   -1.3,   -1.3,   -1.3,   -1.3,   -1.3,   -1.2,   -1.2,   -1.2,   -1.1,   -1.0,   -1.1,   -1.0,   -1.0,   -1.0,   -1.1,   -1.0,   -1.1,   -1.0,   -1.1,   -1.2,   -1.2,   -1.3,   -1.1,   -1.2,   -1.2,   -1.0,   -1.0,   -1.1,   -1.0,   -1.1,   -1.0,   -1.1,   -1.1
2014/09/19 23:40,    0.9,  999.0,    0.5,    0.2,   -0.1,   -0.1,   -0.1,   -0.1,   -0.5,    0.1,  999.0,   -0.0,    0.1,    0.1,   -0.0,   -0.2,    0.0,    0.0,    0.0,   -0.1,   -0.1,   -0.1,   -0.1,   -0.1,   -0.1,   -0.1,   -0.0,  999.0,  999.0,   -1.1,   -1.1,   -1.2,   -1.3,   -1.2,   -1.3,   -1.4,   -1.4,   -1.5,   -1.5,   -1.5,   -1.4,   -1.4,   -1.4,   -1.3,   -1.3,   -1.2,   -1.2,   -1.2,   -1.2,   -1.2,   -1.2,   -1.1,   -1.1,   -1.0,   -1.1,   -1.1,   -1.0,   -1.0,   -1.0,   -1.0,   -0.9,   -0.9,   -0.9,   -1.0,   -1.0,   -1.0,   -1.1,   -1.1,   -1.2,   -1.1,   -1.2,   -1.1,   -0.9,   -1.1,   -1.0,   -1.1,   -1.1,   -1.1,   -1.1,   -0.9
2014/09/19 23:50,  999.0,    0.2,    0.1,   -0.5,   -0.0,   -0.4,   -0.1,   -0.0,   -0.3,   -0.1,  999.0,  999.0,  999.0,   -0.0,    0.2,   -0.2,    0.1,    0.1,    0.0,    0.0,    0.1,    0.1,  999.0,  999.0,  999.0,  999.0,  999.0,    0.3,  999.0,   -0.8,   -1.1,   -1.1,   -1.1,   -1.2,   -1.2,   -1.2,   -1.3,   -1.2,   -1.3,   -1.3,   -1.2,   -1.2,   -1.1,   -1.2,   -1.2,   -1.2,   -1.2,   -1.2,   -1.2,   -1.2,   -1.1,   -1.1,   -1.2,   -1.1,   -1.1,   -1.1,   -1.1,   -1.0,   -1.0,   -0.9,   -0.9,   -0.9,   -0.9,   -1.0,   -1.1,   -1.1,   -1.0,   -1.2,   -1.0,   -1.1,   -1.1,   -1.2,   -1.1,   -1.2,   -1.1,   -1.0,   -0.9,   -1.0,   -1.0,   -0.9
